Time,TemperatureF,DewpointF,PressureIn,WindDirection,WindDirectionDegrees,WindSpeedMPH,WindSpeedGustMPH,Humidity,HourlyPrecipIn,Conditions,Clouds,dailyrainin,SolarRadiationWatts/m^2,SoftwareType,DateUTC
2013-01-15 00:00:00,34.3,-3.8,30.26,East,89,0.0,0.0,19,0.00,CLR,FEW,0.00,0.0,WeatherDisplay:10.37,2013-01-15 08:00:00,
2013-01-15 00:01:00,34.3,-4.9,30.26,ENE,74,0.0,0.0,18,0.00,CLR,FEW,0.00,0.0,WeatherDisplay:10.37,2013-01-15 08:01:00,
2013-01-15 00:02:00,34.3,-4.9,30.26,ENE,74,0.0,0.0,18,0.00,CLR,FEW,0.00,0.0,WeatherDisplay:10.37,2013-01-15 08:02:00,
2013-01-15 00:04:00,34.3,-3.8,30.26,ENE,73,0.0,0.0,19,0.00,CLR,FEW,0.00,0.0,WeatherDisplay:10.37,2013-01-15 08:04:00,
2013-01-15 00:06:00,34.1,-3.9,30.26,ENE,73,0.0,0.0,19,0.00,CLR,FEW,0.00,0.0,WeatherDisplay:10.37,2013-01-15 08:06:00,
2013-01-15 00:07:00,34.1,-3.9,30.26,ENE,73,0.0,0.0,19,0.00,CLR,FEW,0.00,0.0,WeatherDisplay:10.37,2013-01-15 08:07:00,
2013-01-15 00:09:00,34.4,-4.8,30.26,ENE,74,0.0,0.0,18,0.00,CLR,FEW,0.00,0.0,WeatherDisplay:10.37,2013-01-15 08:09:00,
2013-01-15 00:11:00,34.7,-5.8,30.26,ENE,74,0.0,0.0,17,0.00,CLR,FEW,0.00,0.0,WeatherDisplay:10.37,2013-01-15 08:11:00,
2013-01-15 00:12:00,34.9,-4.4,30.26,East,80,0.0,0.0,18,0.00,CLR,FEW,0.00,0.0,WeatherDisplay:10.37,2013-01-15 08:12:00,
2013-01-15 00:13:00,34.9,-4.4,30.26,East,80,0.0,0.0,18,0.00,CLR,FEW,0.00,0.0,WeatherDisplay:10.37,2013-01-15 08:13:00,
2013-01-15 00:14:00,35.0,-4.3,30.26,East,80,0.0,0.0,18,0.00,CLR,FEW,0.00,0.0,WeatherDisplay:10.37,2013-01-15 08:14:00,
2013-01-15 00:17:00,35.3,-4.1,30.26,East,87,0.0,0.0,18,0.00,CLR,FEW,0.00,0.0,WeatherDisplay:10.37,2013-01-15 08:17:00,
2013-01-15 00:18:00,35.2,-4.2,30.26,East,87,0.0,0.0,18,0.00,CLR,FEW,0.00,0.0,WeatherDisplay:10.37,2013-01-15 08:18:00,
2013-01-15 00:19:00,35.2,-4.2,30.26,East,87,0.0,0.0,18,0.00,CLR,FEW,0.00,0.0,WeatherDisplay:10.37,2013-01-15 08:19:00,
2013-01-15 00:23:00,34.9,-4.4,30.26,East,87,0.0,0.0,18,0.00,CLR,FEW,0.00,0.0,WeatherDisplay:10.37,2013-01-15 08:23:00,
2013-01-15 00:24:00,34.7,-3.4,30.26,East,87,0.0,0.0,19,0.00,CLR,FEW,0.00,0.0,WeatherDisplay:10.37,2013-01-15 08:24:00,
2013-01-15 00:28:00,34.1,-2.9,30.26,East,87,0.0,0.0,20,0.00,CLR,FEW,0.00,0.0,WeatherDisplay:10.37,2013-01-15 08:28:00,
2013-01-15 00:29:00,34.0,-2.9,30.26,ENE,60,0.0,0.0,20,0.00,CLR,FEW,0.00,0.0,WeatherDisplay:10.37,2013-01-15 08:29:00,
2013-01-15 00:30:00,33.8,-3.1,30.26,NE,53,0.0,0.0,20,0.00,CLR,FEW,0.00,0.0,WeatherDisplay:10.37,2013-01-15 08:30:00,
2013-01-15 00:34:00,33.2,-3.6,30.26,NE,53,0.0,0.0,20,0.00,CLR,FEW,0.00,0.0,WeatherDisplay:10.37,2013-01-15 08:34:00,
2013-01-15 00:35:00,33.2,-3.6,30.26,NE,53,0.0,0.0,20,0.00,CLR,FEW,0.00,0.0,WeatherDisplay:10.37,2013-01-15 08:35:00,
2013-01-15 00:39:00,33.4,-3.5,30.26,NE,51,0.0,0.0,20,0.00,CLR,FEW,0.00,0.0,WeatherDisplay:10.37,2013-01-15 08:39:00,
2013-01-15 00:40:00,33.4,-3.5,30.26,NE,51,0.0,0.0,20,0.00,CLR,FEW,0.00,0.0,WeatherDisplay:10.37,2013-01-15 08:40:00,
2013-01-15 00:41:00,33.5,-3.4,30.26,NE,52,0.0,0.0,20,0.00,CLR,FEW,0.00,0.0,WeatherDisplay:10.37,2013-01-15 08:41:00,
2013-01-15 00:44:00,33.5,-2.3,30.26,NE,52,0.0,0.0,21,0.00,CLR,FEW,0.00,0.0,WeatherDisplay:10.37,2013-01-15 08:44:00,
2013-01-15 00:45:00,33.5,-2.3,30.27,NE,52,0.0,0.0,21,0.00,CLR,FEW,0.00,0.0,WeatherDisplay:10.37,2013-01-15 08:45:00,
2013-01-15 00:46:00,33.4,-2.4,30.27,NE,51,0.0,0.0,21,0.00,CLR,FEW,0.00,0.0,WeatherDisplay:10.37,2013-01-15 08:46:00,
2013-01-15 00:50:00,33.4,-2.4,30.27,NE,52,0.0,0.0,21,0.00,CLR,FEW,0.00,0.0,WeatherDisplay:10.37,2013-01-15 08:50:00,
2013-01-15 00:51:00,33.1,-1.7,30.27,NE,53,0.0,0.0,22,0.00,CLR,FEW,0.00,0.0,WeatherDisplay:10.37,2013-01-15 08:51:00,
2013-01-15 00:52:00,33.1,-2.7,30.27,NE,53,0.0,0.0,21,0.00,CLR,FEW,0.00,0.0,WeatherDisplay:10.37,2013-01-15 08:52:00,
2013-01-15 00:56:00,33.4,-3.5,30.27,NE,53,0.0,0.0,20,0.00,CLR,FEW,0.00,0.0,WeatherDisplay:10.37,2013-01-15 08:56:00,
2013-01-15 00:57:00,33.4,-3.5,30.27,NE,52,0.0,0.0,20,0.00,CLR,FEW,0.00,0.0,WeatherDisplay:10.37,2013-01-15 08:57:00,
2013-01-15 00:58:00,33.5,-3.4,30.27,NE,53,0.0,0.0,20,0.00,CLR,FEW,0.00,0.0,WeatherDisplay:10.37,2013-01-15 08:58:00,
2013-01-15 01:01:00,33.4,-2.4,30.27,NE,53,0.0,0.0,21,0.00,CLR,FEW,0.00,0.0,WeatherDisplay:10.37,2013-01-15 09:01:00,
2013-01-15 01:02:00,33.2,-1.6,30.27,NE,53,0.0,0.0,22,0.00,CLR,FEW,0.00,0.0,WeatherDisplay:10.37,2013-01-15 09:02:00,
2013-01-15 01:03:00,33.1,-0.8,30.27,NE,53,0.0,0.0,23,0.00,CLR,FEW,0.00,0.0,WeatherDisplay:10.37,2013-01-15 09:03:00,
2013-01-15 01:04:00,32.9,0.0,30.27,NE,53,0.0,0.0,24,0.00,CLR,FEW,0.00,0.0,WeatherDisplay:10.37,2013-01-15 09:04:00,
2013-01-15 01:06:00,32.9,-0.9,30.27,East,97,0.0,0.0,23,0.00,CLR,FEW,0.00,0.0,WeatherDisplay:10.37,2013-01-15 09:06:00,
2013-01-15 01:08:00,33.1,-0.8,30.27,East,90,0.0,0.0,23,0.00,CLR,FEW,0.00,0.0,WeatherDisplay:10.37,2013-01-15 09:08:00,
2013-01-15 01:09:00,32.9,0.0,30.27,East,82,0.0,0.0,24,0.00,CLR,FEW,0.00,0.0,WeatherDisplay:10.37,2013-01-15 09:09:00,
2013-01-15 01:10:00,32.8,-0.1,30.27,ENE,68,0.0,0.0,24,0.00,CLR,FEW,0.00,0.0,WeatherDisplay:10.37,2013-01-15 09:10:00,
2013-01-15 01:11:00,32.8,-1.0,30.27,ENE,69,0.0,0.0,23,0.00,CLR,FEW,0.00,0.0,WeatherDisplay:10.37,2013-01-15 09:11:00,
2013-01-15 01:13:00,32.9,-1.9,30.27,ENE,70,0.0,0.0,22,0.00,CLR,FEW,0.00,0.0,WeatherDisplay:10.37,2013-01-15 09:13:00,
2013-01-15 01:15:00,33.1,-1.7,30.27,ENE,70,0.0,0.0,22,0.00,CLR,FEW,0.00,0.0,WeatherDisplay:10.37,2013-01-15 09:15:00,
2013-01-15 01:16:00,33.2,-2.6,30.27,ENE,71,0.0,0.0,21,0.00,CLR,FEW,0.00,0.0,WeatherDisplay:10.37,2013-01-15 09:16:00,
2013-01-15 01:18:00,33.4,-2.4,30.27,ENE,71,0.0,0.0,21,0.00,CLR,FEW,0.00,0.0,WeatherDisplay:10.37,2013-01-15 09:18:00,
2013-01-15 01:20:00,33.4,-2.4,30.27,ENE,71,0.0,0.0,21,0.00,CLR,FEW,0.00,0.0,WeatherDisplay:10.37,2013-01-15 09:20:00,
2013-01-15 01:21:00,33.4,-2.4,30.27,ENE,71,0.0,0.0,21,0.00,CLR,FEW,0.00,0.0,WeatherDisplay:10.37,2013-01-15 09:21:00,
2013-01-15 01:23:00,33.4,-2.4,30.27,ENE,67,0.0,0.0,21,0.00,CLR,FEW,0.00,0.0,WeatherDisplay:10.37,2013-01-15 09:23:00,
2013-01-15 01:26:00,33.4,-3.5,30.27,NE,55,0.0,0.0,20,0.00,CLR,FEW,0.00,0.0,WeatherDisplay:10.37,2013-01-15 09:26:00,
2013-01-15 01:27:00,33.4,-2.4,30.27,NE,55,0.0,0.0,21,0.00,CLR,FEW,0.00,0.0,WeatherDisplay:10.37,2013-01-15 09:27:00,
2013-01-15 01:29:00,33.7,-3.2,30.27,NE,55,0.0,0.0,20,0.00,CLR,FEW,0.00,0.0,WeatherDisplay:10.37,2013-01-15 09:29:00,
2013-01-15 01:31:00,33.4,-1.4,30.27,NE,55,0.0,0.0,22,0.00,CLR,FEW,0.00,0.0,WeatherDisplay:10.37,2013-01-15 09:31:00,
2013-01-15 01:33:00,33.2,-1.6,30.27,NE,55,0.0,0.0,22,0.00,CLR,FEW,0.00,0.0,WeatherDisplay:10.37,2013-01-15 09:33:00,
2013-01-15 01:34:00,33.2,-1.6,30.27,NE,55,0.0,0.0,22,0.00,CLR,FEW,0.00,0.0,WeatherDisplay:10.37,2013-01-15 09:34:00,
2013-01-15 01:36:00,33.2,-1.6,30.27,NE,55,0.0,0.0,22,0.00,CLR,FEW,0.00,0.0,WeatherDisplay:10.37,2013-01-15 09:36:00,
2013-01-15 01:37:00,33.1,-1.7,30.27,NE,55,0.0,0.0,22,0.00,CLR,FEW,0.00,0.0,WeatherDisplay:10.37,2013-01-15 09:37:00,
2013-01-15 01:38:00,33.1,-1.7,30.27,NE,55,0.0,0.0,22,0.00,CLR,FEW,0.00,0.0,WeatherDisplay:10.37,2013-01-15 09:38:00,
2013-01-15 01:39:00,33.1,-1.7,30.27,NE,55,0.0,0.0,22,0.00,CLR,FEW,0.00,0.0,WeatherDisplay:10.37,2013-01-15 09:39:00,
2013-01-15 01:41:00,33.2,-1.6,30.27,NE,55,0.0,0.0,22,0.00,CLR,FEW,0.00,0.0,WeatherDisplay:10.37,2013-01-15 09:41:00,
2013-01-15 01:43:00,33.4,-1.4,30.27,NE,55,0.0,0.0,22,0.00,CLR,FEW,0.00,0.0,WeatherDisplay:10.37,2013-01-15 09:43:00,
2013-01-15 01:44:00,33.4,-1.4,30.27,NE,55,0.0,0.0,22,0.00,CLR,FEW,0.00,0.0,WeatherDisplay:10.37,2013-01-15 09:44:00,
2013-01-15 01:45:00,33.4,-2.4,30.28,NE,55,0.0,0.0,21,0.00,CLR,FEW,0.00,0.0,WeatherDisplay:10.37,2013-01-15 09:45:00,
2013-01-15 01:48:00,33.7,-3.2,30.28,NE,55,0.0,0.0,20,0.00,CLR,FEW,0.00,0.0,WeatherDisplay:10.37,2013-01-15 09:48:00,
2013-01-15 01:49:00,33.7,-3.2,30.28,NE,55,0.0,0.0,20,0.00,CLR,FEW,0.00,0.0,WeatherDisplay:10.37,2013-01-15 09:49:00,
2013-01-15 01:50:00,33.7,-2.2,30.28,NE,55,0.0,0.0,21,0.00,CLR,FEW,0.00,0.0,WeatherDisplay:10.37,2013-01-15 09:50:00,
2013-01-15 01:51:00,33.7,-2.2,30.28,NE,55,0.0,0.0,21,0.00,CLR,FEW,0.00,0.0,WeatherDisplay:10.37,2013-01-15 09:51:00,
2013-01-15 01:53:00,33.4,-2.4,30.28,NE,55,0.0,0.0,21,0.00,CLR,FEW,0.00,0.0,WeatherDisplay:10.37,2013-01-15 09:53:00,
2013-01-15 01:54:00,33.4,-2.4,30.28,NE,55,0.0,0.0,21,0.00,CLR,FEW,0.00,0.0,WeatherDisplay:10.37,2013-01-15 09:54:00,
2013-01-15 01:55:00,33.4,-2.4,30.28,NE,55,0.0,0.0,21,0.00,CLR,FEW,0.00,0.0,WeatherDisplay:10.37,2013-01-15 09:55:00,
2013-01-15 01:56:00,33.2,-2.6,30.28,NE,55,0.0,0.0,21,0.00,CLR,FEW,0.00,0.0,WeatherDisplay:10.37,2013-01-15 09:56:00,
2013-01-15 01:58:00,32.9,-1.9,30.28,NE,55,0.0,0.0,22,0.00,CLR,FEW,0.00,0.0,WeatherDisplay:10.37,2013-01-15 09:58:00,
2013-01-15 02:00:00,32.8,-2.0,30.28,NE,55,0.0,0.0,22,0.00,CLR,FEW,0.00,0.0,WeatherDisplay:10.37,2013-01-15 10:00:00,
2013-01-15 02:01:00,32.9,-2.8,30.28,NE,55,0.0,0.0,21,0.00,CLR,FEW,0.00,0.0,WeatherDisplay:10.37,2013-01-15 10:01:00,
2013-01-15 02:02:00,32.9,-1.9,30.28,NE,55,0.0,0.0,22,0.00,CLR,FEW,0.00,0.0,WeatherDisplay:10.37,2013-01-15 10:02:00,
2013-01-15 02:04:00,32.9,-2.8,30.28,NE,55,0.0,0.0,21,0.00,CLR,FEW,0.00,0.0,WeatherDisplay:10.37,2013-01-15 10:04:00,
2013-01-15 02:05:00,32.9,-2.8,30.28,NE,55,0.0,0.0,21,0.00,CLR,FEW,0.00,0.0,WeatherDisplay:10.37,2013-01-15 10:05:00,
2013-01-15 02:06:00,32.9,-2.8,30.28,NE,55,0.0,0.0,21,0.00,CLR,FEW,0.00,0.0,WeatherDisplay:10.37,2013-01-15 10:06:00,
2013-01-15 02:07:00,32.7,-0.2,30.28,East,80,0.0,0.0,24,0.00,CLR,FEW,0.00,0.0,WeatherDisplay:10.37,2013-01-15 10:07:00,
2013-01-15 02:09:00,32.2,-0.6,30.28,East,80,0.0,0.0,24,0.00,CLR,FEW,0.00,0.0,WeatherDisplay:10.37,2013-01-15 10:09:00,
2013-01-15 02:10:00,32.2,-0.6,30.28,East,80,0.0,0.0,24,0.00,CLR,FEW,0.00,0.0,WeatherDisplay:10.37,2013-01-15 10:10:00,
2013-01-15 02:11:00,32.1,-0.7,30.28,East,80,0.0,0.0,24,0.00,CLR,FEW,0.00,0.0,WeatherDisplay:10.37,2013-01-15 10:11:00,
2013-01-15 02:12:00,32.1,-0.7,30.28,NNE,30,0.0,0.0,24,0.00,CLR,FEW,0.00,0.0,WeatherDisplay:10.37,2013-01-15 10:12:00,
2013-01-15 02:14:00,31.9,0.0,30.28,NNE,30,0.0,0.0,25,0.00,CLR,FEW,0.00,0.0,WeatherDisplay:10.37,2013-01-15 10:14:00,
2013-01-15 02:16:00,31.9,0.0,30.28,NNE,30,0.0,0.0,25,0.00,CLR,FEW,0.00,0.0,WeatherDisplay:10.37,2013-01-15 10:16:00,
2013-01-15 02:18:00,31.9,-0.9,30.28,ENE,64,0.0,0.0,24,0.00,CLR,FEW,0.00,0.0,WeatherDisplay:10.37,2013-01-15 10:18:00,
2013-01-15 02:19:00,32.2,-2.5,30.28,NE,46,0.0,0.0,22,0.00,CLR,FEW,0.00,0.0,WeatherDisplay:10.37,2013-01-15 10:19:00,
2013-01-15 02:21:00,32.4,-2.3,30.28,NE,47,0.0,0.0,22,0.00,CLR,FEW,0.00,0.0,WeatherDisplay:10.37,2013-01-15 10:21:00,
2013-01-15 02:22:00,32.5,-2.2,30.28,NE,47,0.0,0.0,22,0.00,CLR,FEW,0.00,0.0,WeatherDisplay:10.37,2013-01-15 10:22:00,
2013-01-15 02:23:00,32.8,-2.9,30.28,NE,47,0.0,0.0,21,0.00,CLR,FEW,0.00,0.0,WeatherDisplay:10.37,2013-01-15 10:23:00,
2013-01-15 02:24:00,32.8,-2.0,30.28,NE,46,0.0,0.0,22,0.00,CLR,FEW,0.00,0.0,WeatherDisplay:10.37,2013-01-15 10:24:00,
2013-01-15 02:26:00,32.8,-2.0,30.28,NE,44,0.0,0.0,22,0.00,CLR,FEW,0.00,0.0,WeatherDisplay:10.37,2013-01-15 10:26:00,
2013-01-15 02:28:00,32.9,-2.8,30.28,NE,44,0.0,0.0,21,0.00,CLR,FEW,0.00,0.0,WeatherDisplay:10.37,2013-01-15 10:28:00,
2013-01-15 02:30:00,33.0,-3.8,30.29,NE,45,0.0,0.0,20,0.00,CLR,FEW,0.00,0.0,WeatherDisplay:10.37,2013-01-15 10:30:00,
2013-01-15 02:33:00,33.2,-1.6,30.29,NE,43,0.0,0.0,22,0.00,CLR,FEW,0.00,0.0,WeatherDisplay:10.37,2013-01-15 10:33:00,
2013-01-15 02:34:00,33.2,-1.6,30.29,NE,43,0.0,0.0,22,0.00,CLR,FEW,0.00,0.0,WeatherDisplay:10.37,2013-01-15 10:34:00,
2013-01-15 02:35:00,33.2,-1.6,30.29,NE,43,0.0,0.0,22,0.00,CLR,FEW,0.00,0.0,WeatherDisplay:10.37,2013-01-15 10:35:00,
2013-01-15 02:38:00,32.9,-1.9,30.29,NE,43,0.0,0.0,22,0.00,CLR,FEW,0.00,0.0,WeatherDisplay:10.37,2013-01-15 10:38:00,
2013-01-15 02:40:00,32.9,-1.9,30.29,NE,43,0.0,0.0,22,0.00,CLR,FEW,0.00,0.0,WeatherDisplay:10.37,2013-01-15 10:40:00,
2013-01-15 02:41:00,32.8,-2.0,30.29,NE,43,0.0,0.0,22,0.00,CLR,FEW,0.00,0.0,WeatherDisplay:10.37,2013-01-15 10:41:00,
2013-01-15 02:44:00,32.7,-2.0,30.29,NE,43,0.0,0.0,22,0.00,CLR,FEW,0.00,0.0,WeatherDisplay:10.37,2013-01-15 10:44:00,
2013-01-15 02:46:00,32.7,-1.1,30.29,NE,43,0.0,0.0,23,0.00,CLR,FEW,0.00,0.0,WeatherDisplay:10.37,2013-01-15 10:46:00,
2013-01-15 02:48:00,32.4,-0.4,30.29,NE,43,0.0,0.0,24,0.00,CLR,FEW,0.00,0.0,WeatherDisplay:10.37,2013-01-15 10:48:00,
2013-01-15 02:49:00,32.1,-0.7,30.29,NE,43,0.0,0.0,24,0.00,CLR,FEW,0.00,0.0,WeatherDisplay:10.37,2013-01-15 10:49:00,
2013-01-15 02:52:00,31.6,0.6,30.29,ENE,76,0.0,0.0,26,0.00,CLR,FEW,0.00,0.0,WeatherDisplay:10.37,2013-01-15 10:52:00,
2013-01-15 02:53:00,31.5,-0.3,30.29,ENE,76,0.0,0.0,25,0.00,CLR,FEW,0.00,0.0,WeatherDisplay:10.37,2013-01-15 10:53:00,
2013-01-15 02:54:00,31.6,-0.3,30.29,ENE,76,0.0,0.0,25,0.00,CLR,FEW,0.00,0.0,WeatherDisplay:10.37,2013-01-15 10:54:00,
2013-01-15 02:57:00,31.8,-0.1,30.29,ENE,76,0.0,0.0,25,0.00,CLR,FEW,0.00,0.0,WeatherDisplay:10.37,2013-01-15 10:57:00,
2013-01-15 02:58:00,31.8,-0.1,30.29,ENE,76,0.0,0.0,25,0.00,CLR,FEW,0.00,0.0,WeatherDisplay:10.37,2013-01-15 10:58:00,
2013-01-15 03:00:00,31.9,-0.9,30.28,ENE,76,0.0,0.0,24,0.00,CLR,FEW,0.00,0.0,WeatherDisplay:10.37,2013-01-15 11:00:00,
2013-01-15 03:02:00,32.2,-0.6,30.28,ENE,76,0.0,0.0,24,0.00,CLR,FEW,0.00,0.0,WeatherDisplay:10.37,2013-01-15 11:02:00,
2013-01-15 03:03:00,32.2,0.3,30.28,ENE,76,0.0,0.0,25,0.00,CLR,FEW,0.00,0.0,WeatherDisplay:10.37,2013-01-15 11:03:00,
2013-01-15 03:04:00,32.1,0.2,30.28,ENE,76,0.0,0.0,25,0.00,CLR,FEW,0.00,0.0,WeatherDisplay:10.37,2013-01-15 11:04:00,
2013-01-15 03:05:00,31.9,0.8,30.28,ENE,76,0.0,0.0,26,0.00,CLR,FEW,0.00,0.0,WeatherDisplay:10.37,2013-01-15 11:05:00,
2013-01-15 03:08:00,32.1,0.2,30.28,East,101,0.0,0.0,25,0.00,CLR,FEW,0.00,0.0,WeatherDisplay:10.37,2013-01-15 11:08:00,
2013-01-15 03:09:00,31.9,0.0,30.28,East,101,0.0,0.0,25,0.00,CLR,FEW,0.00,0.0,WeatherDisplay:10.37,2013-01-15 11:09:00,
2013-01-15 03:10:00,31.9,0.8,30.28,East,100,0.0,0.0,26,0.00,CLR,FEW,0.00,0.0,WeatherDisplay:10.37,2013-01-15 11:10:00,
2013-01-15 03:14:00,31.8,0.7,30.28,East,100,0.0,0.0,26,0.00,CLR,FEW,0.00,0.0,WeatherDisplay:10.37,2013-01-15 11:14:00,
2013-01-15 03:15:00,31.6,0.6,30.28,East,100,0.0,0.0,26,0.00,CLR,FEW,0.00,0.0,WeatherDisplay:10.37,2013-01-15 11:15:00,
2013-01-15 03:19:00,31.9,-0.9,30.28,East,100,0.0,0.0,24,0.00,CLR,FEW,0.00,0.0,WeatherDisplay:10.37,2013-01-15 11:19:00,
2013-01-15 03:20:00,31.9,-0.9,30.28,East,100,0.0,0.0,24,0.00,CLR,FEW,0.00,0.0,WeatherDisplay:10.37,2013-01-15 11:20:00,
2013-01-15 03:25:00,32.4,-0.5,30.28,East,100,0.0,0.0,24,0.00,CLR,FEW,0.00,0.0,WeatherDisplay:10.37,2013-01-15 11:25:00,
2013-01-15 03:26:00,32.4,-0.4,30.28,East,99,0.0,0.0,24,0.00,CLR,FEW,0.00,0.0,WeatherDisplay:10.37,2013-01-15 11:26:00,
2013-01-15 03:30:00,32.4,-0.4,30.28,NE,55,0.0,0.0,24,0.00,CLR,FEW,0.00,0.0,WeatherDisplay:10.37,2013-01-15 11:30:00,
2013-01-15 03:31:00,32.5,-2.2,30.28,NE,55,0.0,0.0,22,0.00,CLR,FEW,0.00,0.0,WeatherDisplay:10.37,2013-01-15 11:31:00,
2013-01-15 03:35:00,33.5,-2.3,30.28,NE,55,0.0,0.0,21,0.00,CLR,FEW,0.00,0.0,WeatherDisplay:10.37,2013-01-15 11:35:00,
2013-01-15 03:36:00,33.5,-2.3,30.28,NE,55,0.0,0.0,21,0.00,CLR,FEW,0.00,0.0,WeatherDisplay:10.37,2013-01-15 11:36:00,
2013-01-15 03:41:00,32.8,-1.0,30.28,East,96,0.0,0.0,23,0.00,CLR,FEW,0.00,0.0,WeatherDisplay:10.37,2013-01-15 11:41:00,
2013-01-15 03:43:00,32.7,-1.1,30.28,ENE,58,0.0,0.0,23,0.00,CLR,FEW,0.00,0.0,WeatherDisplay:10.37,2013-01-15 11:43:00,
2013-01-15 03:46:00,32.7,-2.0,30.28,ENE,58,0.0,0.0,22,0.00,CLR,FEW,0.00,0.0,WeatherDisplay:10.37,2013-01-15 11:46:00,
2013-01-15 03:47:00,32.9,-2.8,30.28,ENE,58,0.0,0.0,21,0.00,CLR,FEW,0.00,0.0,WeatherDisplay:10.37,2013-01-15 11:47:00,
2013-01-15 03:49:00,33.4,-2.4,30.28,ENE,58,0.0,0.0,21,0.00,CLR,FEW,0.00,0.0,WeatherDisplay:10.37,2013-01-15 11:49:00,
2013-01-15 03:51:00,33.5,-2.3,30.28,ENE,58,0.0,0.0,21,0.00,CLR,FEW,0.00,0.0,WeatherDisplay:10.37,2013-01-15 11:51:00,
2013-01-15 03:52:00,33.5,-1.4,30.28,ENE,58,0.0,0.0,22,0.00,CLR,FEW,0.00,0.0,WeatherDisplay:10.37,2013-01-15 11:52:00,
2013-01-15 03:54:00,33.5,-2.3,30.28,ENE,58,0.0,0.0,21,0.00,CLR,FEW,0.00,0.0,WeatherDisplay:10.37,2013-01-15 11:54:00,
2013-01-15 03:56:00,33.5,-1.4,30.28,ENE,58,0.0,0.0,22,0.00,CLR,FEW,0.00,0.0,WeatherDisplay:10.37,2013-01-15 11:56:00,
2013-01-15 03:57:00,33.4,-0.5,30.28,ENE,58,0.0,0.0,23,0.00,CLR,FEW,0.00,0.0,WeatherDisplay:10.37,2013-01-15 11:57:00,
2013-01-15 04:00:00,32.9,0.0,30.29,ENE,59,0.0,0.0,24,0.00,CLR,FEW,0.00,0.0,WeatherDisplay:10.37,2013-01-15 12:00:00,
2013-01-15 04:01:00,32.5,-0.4,30.29,East,87,0.0,0.0,24,0.00,CLR,FEW,0.00,0.0,WeatherDisplay:10.37,2013-01-15 12:01:00,
2013-01-15 04:02:00,32.5,-0.4,30.29,East,86,0.0,0.0,24,0.00,CLR,FEW,0.00,0.0,WeatherDisplay:10.37,2013-01-15 12:02:00,
2013-01-15 04:03:00,32.2,1.1,30.29,ENE,71,0.0,0.0,26,0.00,CLR,FEW,0.00,0.0,WeatherDisplay:10.37,2013-01-15 12:03:00,
2013-01-15 04:06:00,31.6,2.2,30.29,ENE,70,0.0,0.0,28,0.00,CLR,FEW,0.00,0.0,WeatherDisplay:10.37,2013-01-15 12:06:00,
2013-01-15 04:07:00,31.5,2.1,30.29,NE,55,0.0,0.0,28,0.00,CLR,FEW,0.00,0.0,WeatherDisplay:10.37,2013-01-15 12:07:00,
2013-01-15 04:08:00,31.3,0.3,30.29,NE,55,0.0,0.0,26,0.00,CLR,FEW,0.00,0.0,WeatherDisplay:10.37,2013-01-15 12:08:00,
2013-01-15 04:11:00,31.5,-0.3,30.29,NE,55,0.0,0.0,25,0.00,CLR,FEW,0.00,0.0,WeatherDisplay:10.37,2013-01-15 12:11:00,
2013-01-15 04:13:00,31.6,-0.3,30.29,NE,55,0.0,0.0,25,0.00,CLR,FEW,0.00,0.0,WeatherDisplay:10.37,2013-01-15 12:13:00,
2013-01-15 04:16:00,31.9,-0.9,30.29,ENE,67,0.0,0.0,24,0.00,CLR,FEW,0.00,0.0,WeatherDisplay:10.37,2013-01-15 12:16:00,
2013-01-15 04:18:00,31.9,0.0,30.29,East,91,0.0,0.0,25,0.00,CLR,FEW,0.00,0.0,WeatherDisplay:10.37,2013-01-15 12:18:00,
2013-01-15 04:19:00,31.8,-1.0,30.29,East,91,0.0,0.0,24,0.00,CLR,FEW,0.00,0.0,WeatherDisplay:10.37,2013-01-15 12:19:00,
2013-01-15 04:21:00,31.8,-0.1,30.29,East,91,0.0,0.0,25,0.00,CLR,FEW,0.00,0.0,WeatherDisplay:10.37,2013-01-15 12:21:00,
2013-01-15 04:23:00,31.8,-1.9,30.29,East,91,0.0,0.0,23,0.00,CLR,FEW,0.00,0.0,WeatherDisplay:10.37,2013-01-15 12:23:00,
2013-01-15 04:24:00,31.9,-1.8,30.29,East,91,0.0,0.0,23,0.00,CLR,FEW,0.00,0.0,WeatherDisplay:10.37,2013-01-15 12:24:00,
2013-01-15 04:25:00,32.2,-1.5,30.29,East,91,0.0,0.0,23,0.00,CLR,FEW,0.00,0.0,WeatherDisplay:10.37,2013-01-15 12:25:00,
2013-01-15 04:27:00,32.4,-1.4,30.29,East,90,0.0,0.0,23,0.00,CLR,FEW,0.00,0.0,WeatherDisplay:10.37,2013-01-15 12:27:00,
2013-01-15 04:28:00,32.4,-1.4,30.29,East,90,0.0,0.0,23,0.00,CLR,FEW,0.00,0.0,WeatherDisplay:10.37,2013-01-15 12:28:00,
2013-01-15 04:29:00,32.4,-0.4,30.29,East,91,0.0,0.0,24,0.00,CLR,FEW,0.00,0.0,WeatherDisplay:10.37,2013-01-15 12:29:00,
2013-01-15 04:31:00,32.4,-0.4,30.29,East,91,0.0,0.0,24,0.00,CLR,FEW,0.00,0.0,WeatherDisplay:10.37,2013-01-15 12:31:00,
2013-01-15 04:32:00,32.4,-1.4,30.29,East,91,0.0,0.0,23,0.00,CLR,FEW,0.00,0.0,WeatherDisplay:10.37,2013-01-15 12:32:00,
2013-01-15 04:33:00,32.4,-0.4,30.29,East,91,0.0,0.0,24,0.00,CLR,FEW,0.00,0.0,WeatherDisplay:10.37,2013-01-15 12:33:00,
2013-01-15 04:35:00,32.3,-0.6,30.29,East,91,0.0,0.0,24,0.00,CLR,FEW,0.00,0.0,WeatherDisplay:10.37,2013-01-15 12:35:00,
2013-01-15 04:36:00,32.1,-0.7,30.29,East,90,0.0,1.1,24,0.00,CLR,FEW,0.00,0.0,WeatherDisplay:10.37,2013-01-15 12:36:00,
2013-01-15 04:37:00,32.1,-0.7,30.29,East,82,0.0,0.0,24,0.00,CLR,FEW,0.00,0.0,WeatherDisplay:10.37,2013-01-15 12:37:00,
2013-01-15 04:38:00,32.1,-0.7,30.29,East,82,0.0,0.0,24,0.00,CLR,FEW,0.00,0.0,WeatherDisplay:10.37,2013-01-15 12:38:00,
2013-01-15 04:40:00,32.4,-0.4,30.29,ENE,78,0.0,0.0,24,0.00,CLR,FEW,0.00,0.0,WeatherDisplay:10.37,2013-01-15 12:40:00,
2013-01-15 04:41:00,32.4,-1.4,30.29,ENE,78,0.0,0.0,23,0.00,CLR,FEW,0.00,0.0,WeatherDisplay:10.37,2013-01-15 12:41:00,
2013-01-15 04:42:00,32.4,-1.4,30.29,ENE,78,0.0,0.0,23,0.00,CLR,FEW,0.00,0.0,WeatherDisplay:10.37,2013-01-15 12:42:00,
2013-01-15 04:44:00,32.7,-2.0,30.29,ENE,67,0.0,0.0,22,0.00,CLR,FEW,0.00,0.0,WeatherDisplay:10.37,2013-01-15 12:44:00,
2013-01-15 04:46:00,32.8,-1.0,30.29,East,92,0.0,0.0,23,0.00,CLR,FEW,0.00,0.0,WeatherDisplay:10.37,2013-01-15 12:46:00,
2013-01-15 04:48:00,32.2,-0.6,30.29,East,94,0.0,0.0,24,0.00,CLR,FEW,0.00,0.0,WeatherDisplay:10.37,2013-01-15 12:48:00,
2013-01-15 04:49:00,32.2,-1.5,30.29,East,91,0.0,0.0,23,0.00,CLR,FEW,0.00,0.0,WeatherDisplay:10.37,2013-01-15 12:49:00,
2013-01-15 04:51:00,32.2,-0.6,30.29,East,91,0.0,0.0,24,0.00,CLR,FEW,0.00,0.0,WeatherDisplay:10.37,2013-01-15 12:51:00,
2013-01-15 04:53:00,32.2,-1.5,30.29,East,90,0.0,0.0,23,0.00,CLR,FEW,0.00,0.0,WeatherDisplay:10.37,2013-01-15 12:53:00,
2013-01-15 04:55:00,32.2,-0.6,30.29,East,84,0.0,0.0,24,0.00,CLR,FEW,0.00,0.0,WeatherDisplay:10.37,2013-01-15 12:55:00,
2013-01-15 04:56:00,32.2,-0.6,30.29,ENE,63,0.0,0.0,24,0.00,CLR,FEW,0.00,0.0,WeatherDisplay:10.37,2013-01-15 12:56:00,
2013-01-15 04:58:00,32.1,-0.7,30.29,ENE,64,0.0,0.0,24,0.00,CLR,FEW,0.00,0.0,WeatherDisplay:10.37,2013-01-15 12:58:00,
2013-01-15 04:59:00,32.1,-0.7,30.29,ENE,64,0.0,0.0,24,0.00,CLR,FEW,0.00,0.0,WeatherDisplay:10.37,2013-01-15 12:59:00,
2013-01-15 05:00:00,32.2,-0.6,30.29,ENE,64,0.0,0.0,24,0.00,CLR,FEW,0.00,0.0,WeatherDisplay:10.37,2013-01-15 13:00:00,
2013-01-15 05:02:00,32.2,-0.6,30.29,ENE,64,0.0,0.0,24,0.00,CLR,FEW,0.00,0.0,WeatherDisplay:10.37,2013-01-15 13:02:00,
2013-01-15 05:04:00,32.4,-0.4,30.29,ENE,64,0.0,0.0,24,0.00,CLR,FEW,0.00,0.0,WeatherDisplay:10.37,2013-01-15 13:04:00,
2013-01-15 05:05:00,32.4,-0.4,30.29,ENE,63,0.0,0.0,24,0.00,CLR,FEW,0.00,0.0,WeatherDisplay:10.37,2013-01-15 13:05:00,
2013-01-15 05:07:00,32.5,-0.4,30.29,ENE,63,0.0,0.0,24,0.00,CLR,FEW,0.00,0.0,WeatherDisplay:10.37,2013-01-15 13:07:00,
2013-01-15 05:09:00,32.5,-0.4,30.29,ENE,63,0.0,0.0,24,0.00,CLR,FEW,0.00,0.0,WeatherDisplay:10.37,2013-01-15 13:09:00,
2013-01-15 05:10:00,32.7,-1.1,30.29,ENE,63,0.0,0.0,23,0.00,CLR,FEW,0.00,0.0,WeatherDisplay:10.37,2013-01-15 13:10:00,
2013-01-15 05:11:00,32.8,-1.0,30.29,ENE,63,0.0,0.0,23,0.00,CLR,FEW,0.00,0.0,WeatherDisplay:10.37,2013-01-15 13:11:00,
2013-01-15 05:12:00,32.8,-1.0,30.29,ENE,63,0.0,0.0,23,0.00,CLR,FEW,0.00,0.0,WeatherDisplay:10.37,2013-01-15 13:12:00,
2013-01-15 05:16:00,32.8,0.8,30.29,ENE,63,0.0,0.0,25,0.00,CLR,FEW,0.00,0.0,WeatherDisplay:10.37,2013-01-15 13:16:00,
2013-01-15 05:17:00,32.8,-0.1,30.29,ENE,63,0.0,0.0,24,0.00,CLR,FEW,0.00,0.0,WeatherDisplay:10.37,2013-01-15 13:17:00,
2013-01-15 05:19:00,32.8,-0.1,30.29,ENE,63,0.0,0.0,24,0.00,CLR,FEW,0.00,0.0,WeatherDisplay:10.37,2013-01-15 13:19:00,
2013-01-15 05:21:00,32.8,-0.1,30.29,NE,55,0.0,0.0,24,0.00,CLR,FEW,0.00,0.0,WeatherDisplay:10.37,2013-01-15 13:21:00,
2013-01-15 05:22:00,32.8,0.8,30.29,NE,55,0.0,0.0,25,0.00,CLR,FEW,0.00,0.0,WeatherDisplay:10.37,2013-01-15 13:22:00,
2013-01-15 05:24:00,32.8,-0.1,30.29,ENE,58,0.0,0.0,24,0.00,CLR,FEW,0.00,0.0,WeatherDisplay:10.37,2013-01-15 13:24:00,
2013-01-15 05:26:00,32.7,-0.2,30.29,ENE,57,0.0,0.0,24,0.00,CLR,FEW,0.00,0.0,WeatherDisplay:10.37,2013-01-15 13:26:00,
2013-01-15 05:27:00,32.5,0.5,30.29,ENE,57,0.0,0.0,25,0.00,CLR,FEW,0.00,0.0,WeatherDisplay:10.37,2013-01-15 13:27:00,
2013-01-15 05:28:00,32.4,0.4,30.29,ENE,57,0.0,0.0,25,0.00,CLR,FEW,0.00,0.0,WeatherDisplay:10.37,2013-01-15 13:28:00,
2013-01-15 05:30:00,32.2,0.3,30.29,NE,51,0.0,0.0,25,0.00,CLR,FEW,0.00,0.0,WeatherDisplay:10.37,2013-01-15 13:30:00,
2013-01-15 05:31:00,32.1,0.2,30.29,NE,46,0.0,0.0,25,0.00,CLR,FEW,0.00,0.0,WeatherDisplay:10.37,2013-01-15 13:31:00,
2013-01-15 05:32:00,32.1,1.0,30.29,NNE,18,0.0,0.0,26,0.00,CLR,FEW,0.00,0.0,WeatherDisplay:10.37,2013-01-15 13:32:00,
2013-01-15 05:33:00,32.1,0.2,30.29,NNE,18,0.0,0.0,25,0.00,CLR,FEW,0.00,0.0,WeatherDisplay:10.37,2013-01-15 13:33:00,
2013-01-15 05:35:00,32.1,0.2,30.29,NNE,19,0.0,0.0,25,0.00,CLR,FEW,0.00,0.0,WeatherDisplay:10.37,2013-01-15 13:35:00,
2013-01-15 05:38:00,32.2,0.3,30.29,NNE,19,0.0,0.0,25,0.00,CLR,FEW,0.00,0.0,WeatherDisplay:10.37,2013-01-15 13:38:00,
2013-01-15 05:40:00,32.2,1.1,30.29,NNE,19,0.0,0.0,26,0.00,CLR,FEW,0.00,0.0,WeatherDisplay:10.37,2013-01-15 13:40:00,
2013-01-15 05:42:00,32.1,1.0,30.29,NNE,19,0.0,0.0,26,0.00,CLR,FEW,0.00,0.0,WeatherDisplay:10.37,2013-01-15 13:42:00,
2013-01-15 05:43:00,31.9,0.0,30.29,NNE,19,0.0,0.0,25,0.00,CLR,FEW,0.00,0.0,WeatherDisplay:10.37,2013-01-15 13:43:00,
2013-01-15 05:45:00,31.9,-0.9,30.30,NNE,19,0.0,0.0,24,0.00,CLR,FEW,0.00,0.0,WeatherDisplay:10.37,2013-01-15 13:45:00,
2013-01-15 05:47:00,32.1,0.2,30.30,NNE,19,0.0,0.0,25,0.00,CLR,FEW,0.00,0.0,WeatherDisplay:10.37,2013-01-15 13:47:00,
2013-01-15 05:48:00,32.1,-0.7,30.30,NNE,19,0.0,0.0,24,0.00,CLR,FEW,0.00,0.0,WeatherDisplay:10.37,2013-01-15 13:48:00,
2013-01-15 05:49:00,32.1,0.2,30.30,NNE,20,0.0,0.0,25,0.00,CLR,FEW,0.00,0.0,WeatherDisplay:10.37,2013-01-15 13:49:00,
2013-01-15 05:52:00,32.1,0.2,30.30,East,85,0.0,0.0,25,0.00,CLR,FEW,0.00,0.0,WeatherDisplay:10.37,2013-01-15 13:52:00,
2013-01-15 05:53:00,32.2,0.3,30.30,East,85,0.0,0.0,25,0.00,CLR,FEW,0.00,0.0,WeatherDisplay:10.37,2013-01-15 13:53:00,
2013-01-15 05:56:00,32.4,0.4,30.30,East,85,0.0,0.0,25,0.00,CLR,FEW,0.00,0.0,WeatherDisplay:10.37,2013-01-15 13:56:00,
2013-01-15 05:57:00,32.5,-0.4,30.30,East,85,0.0,0.0,24,0.00,CLR,FEW,0.00,0.0,WeatherDisplay:10.37,2013-01-15 13:57:00,
2013-01-15 05:58:00,32.5,-0.4,30.30,East,85,0.0,0.0,24,0.00,CLR,FEW,0.00,0.0,WeatherDisplay:10.37,2013-01-15 13:58:00,
2013-01-15 05:59:00,32.7,-0.2,30.30,East,85,0.0,0.0,24,0.00,CLR,FEW,0.00,0.0,WeatherDisplay:10.37,2013-01-15 13:59:00,
2013-01-15 06:01:00,32.8,-0.1,30.30,East,85,0.0,0.0,24,0.00,CLR,FEW,0.00,0.0,WeatherDisplay:10.37,2013-01-15 14:01:00,
2013-01-15 06:03:00,32.9,0.0,30.30,East,85,0.0,0.0,24,0.00,CLR,FEW,0.00,0.0,WeatherDisplay:10.37,2013-01-15 14:03:00,
2013-01-15 06:04:00,32.5,0.5,30.30,East,86,0.0,0.0,25,0.00,CLR,FEW,0.00,0.0,WeatherDisplay:10.37,2013-01-15 14:04:00,
2013-01-15 06:07:00,32.1,-0.7,30.30,East,87,0.0,1.3,24,0.00,CLR,FEW,0.00,0.0,WeatherDisplay:10.37,2013-01-15 14:07:00,
2013-01-15 06:08:00,32.1,0.2,30.30,East,98,0.2,0.0,25,0.00,CLR,FEW,0.00,0.0,WeatherDisplay:10.37,2013-01-15 14:08:00,
2013-01-15 06:09:00,32.2,-0.6,30.30,East,98,0.0,0.0,24,0.00,CLR,FEW,0.00,0.0,WeatherDisplay:10.37,2013-01-15 14:09:00,
2013-01-15 06:12:00,32.4,0.4,30.30,East,98,0.0,0.0,25,0.00,CLR,FEW,0.00,0.0,WeatherDisplay:10.37,2013-01-15 14:12:00,
2013-01-15 06:13:00,32.4,0.4,30.30,East,98,0.0,0.0,25,0.00,CLR,FEW,0.00,0.0,WeatherDisplay:10.37,2013-01-15 14:13:00,
2013-01-15 06:14:00,32.4,0.4,30.30,East,98,0.0,0.0,25,0.00,CLR,FEW,0.00,0.0,WeatherDisplay:10.37,2013-01-15 14:14:00,
2013-01-15 06:15:00,32.4,0.4,30.30,East,98,0.0,0.0,25,0.00,CLR,FEW,0.00,0.0,WeatherDisplay:10.37,2013-01-15 14:15:00,
2013-01-15 06:17:00,32.1,0.2,30.30,East,98,0.0,0.0,25,0.00,CLR,FEW,0.00,0.0,WeatherDisplay:10.37,2013-01-15 14:17:00,
2013-01-15 06:18:00,32.1,0.2,30.30,East,88,0.0,0.0,25,0.00,CLR,FEW,0.00,0.0,WeatherDisplay:10.37,2013-01-15 14:18:00,
2013-01-15 06:19:00,32.1,0.2,30.30,ENE,73,0.0,0.0,25,0.00,CLR,FEW,0.00,0.0,WeatherDisplay:10.37,2013-01-15 14:19:00,
2013-01-15 06:20:00,32.1,0.2,30.30,ENE,68,0.0,0.0,25,0.00,CLR,FEW,0.00,0.0,WeatherDisplay:10.37,2013-01-15 14:20:00,
2013-01-15 06:23:00,32.5,-0.4,30.30,ENE,61,0.0,0.0,24,0.00,OVC,FEW,0.00,0.0,WeatherDisplay:10.37,2013-01-15 14:23:00,
2013-01-15 06:24:00,32.8,-1.0,30.30,ENE,61,0.0,0.0,23,0.00,OVC,FEW,0.00,0.0,WeatherDisplay:10.37,2013-01-15 14:24:00,
2013-01-15 06:25:00,32.8,-1.0,30.30,ENE,61,0.0,0.0,23,0.00,OVC,FEW,0.00,0.0,WeatherDisplay:10.37,2013-01-15 14:25:00,
2013-01-15 06:28:00,33.4,-0.5,30.30,East,90,0.0,0.0,23,0.00,OVC,FEW,0.00,0.0,WeatherDisplay:10.37,2013-01-15 14:28:00,
2013-01-15 06:29:00,33.4,0.4,30.30,East,90,0.0,0.0,24,0.00,OVC,FEW,0.00,0.0,WeatherDisplay:10.37,2013-01-15 14:29:00,
2013-01-15 06:30:00,33.2,0.2,30.30,East,90,0.0,0.0,24,0.00,OVC,FEW,0.00,0.0,WeatherDisplay:10.37,2013-01-15 14:30:00,
2013-01-15 06:33:00,32.9,0.0,30.30,East,89,0.0,0.0,24,0.00,OVC,FEW,0.00,0.0,WeatherDisplay:10.37,2013-01-15 14:33:00,
2013-01-15 06:34:00,32.9,0.0,30.30,NE,49,0.0,0.0,24,0.00,OVC,FEW,0.00,0.0,WeatherDisplay:10.37,2013-01-15 14:34:00,
2013-01-15 06:35:00,32.9,0.0,30.30,NE,36,0.0,0.0,24,0.00,OVC,FEW,0.00,0.0,WeatherDisplay:10.37,2013-01-15 14:35:00,
2013-01-15 06:37:00,32.8,0.8,30.30,NE,38,0.0,0.0,25,0.00,OVC,FEW,0.00,0.0,WeatherDisplay:10.37,2013-01-15 14:37:00,
2013-01-15 06:39:00,32.7,0.7,30.30,NE,38,0.0,0.0,25,0.00,OVC,FEW,0.00,0.0,WeatherDisplay:10.37,2013-01-15 14:39:00,
2013-01-15 06:40:00,32.7,0.7,30.30,NE,38,0.0,0.0,25,0.00,OVC,FEW,0.00,0.0,WeatherDisplay:10.37,2013-01-15 14:40:00,
2013-01-15 06:43:00,32.8,1.6,30.30,ENE,78,0.0,0.0,26,0.00,OVC,FEW,0.00,0.0,WeatherDisplay:10.37,2013-01-15 14:43:00,
2013-01-15 06:44:00,32.7,0.7,30.30,ENE,78,0.0,0.0,25,0.00,OVC,FEW,0.00,0.0,WeatherDisplay:10.37,2013-01-15 14:44:00,
2013-01-15 06:45:00,32.7,0.7,30.30,ENE,78,0.0,0.0,25,0.00,OVC,FEW,0.00,0.0,WeatherDisplay:10.37,2013-01-15 14:45:00,
2013-01-15 06:49:00,32.5,0.5,30.30,ENE,78,0.0,0.0,25,0.00,OVC,FEW,0.00,0.0,WeatherDisplay:10.37,2013-01-15 14:49:00,
2013-01-15 06:50:00,32.5,0.5,30.30,ENE,78,0.0,0.0,25,0.00,OVC,FEW,0.00,0.0,WeatherDisplay:10.37,2013-01-15 14:50:00,
2013-01-15 06:54:00,32.8,0.8,30.30,ENE,78,0.0,0.0,25,0.00,OVC,FEW,0.00,0.0,WeatherDisplay:10.37,2013-01-15 14:54:00,
2013-01-15 06:55:00,32.8,0.8,30.30,ENE,78,0.0,0.0,25,0.00,OVC,FEW,0.00,5.3,WeatherDisplay:10.37,2013-01-15 14:55:00,
2013-01-15 07:00:00,32.8,0.8,30.30,ENE,78,0.0,0.0,25,0.00,OVC,FEW,0.00,5.3,WeatherDisplay:10.37,2013-01-15 15:00:00,
2013-01-15 07:02:00,32.8,-0.1,30.30,ENE,59,0.0,0.0,24,0.00,CLR,FEW,0.00,7.4,WeatherDisplay:10.37,2013-01-15 15:02:00,
2013-01-15 07:05:00,33.1,0.2,30.30,East,85,0.0,0.0,24,0.00,SCT,FEW,0.00,7.4,WeatherDisplay:10.37,2013-01-15 15:05:00,
2013-01-15 07:07:00,33.1,0.2,30.30,East,90,0.1,2.3,24,0.00,SCT,FEW,0.00,9.5,WeatherDisplay:10.37,2013-01-15 15:07:00,
2013-01-15 07:10:00,33.1,0.2,30.30,East,79,0.0,0.0,24,0.00,BKN,FEW,0.00,9.5,WeatherDisplay:10.37,2013-01-15 15:10:00,
2013-01-15 07:11:00,33.1,0.2,30.30,ENE,78,0.0,0.0,24,0.00,BKN,FEW,0.00,9.5,WeatherDisplay:10.37,2013-01-15 15:11:00,
2013-01-15 07:12:00,33.1,1.0,30.30,ENE,78,0.0,0.0,25,0.00,BKN,FEW,0.00,11.6,WeatherDisplay:10.37,2013-01-15 15:12:00,
2013-01-15 07:13:00,33.1,1.0,30.30,ENE,78,0.0,0.0,25,0.00,BKN,FEW,0.00,11.6,WeatherDisplay:10.37,2013-01-15 15:13:00,
2013-01-15 07:15:00,33.2,0.2,30.31,ENE,78,0.0,0.0,24,0.00,BKN,FEW,0.00,12.6,WeatherDisplay:10.37,2013-01-15 15:15:00,
2013-01-15 07:16:00,33.2,0.2,30.31,ENE,78,0.0,0.0,24,0.00,SCT,FEW,0.00,18.9,WeatherDisplay:10.37,2013-01-15 15:16:00,
2013-01-15 07:18:00,33.4,0.4,30.31,ENE,78,0.0,0.0,24,0.00,BKN,FEW,0.00,18.9,WeatherDisplay:10.37,2013-01-15 15:18:00,
2013-01-15 07:20:00,33.5,0.5,30.31,ENE,73,0.0,0.0,24,0.00,BKN,FEW,0.00,20.0,WeatherDisplay:10.37,2013-01-15 15:20:00,
2013-01-15 07:22:00,33.8,0.8,30.31,ENE,59,0.0,0.0,24,0.00,BKN,FEW,0.00,22.1,WeatherDisplay:10.37,2013-01-15 15:22:00,
2013-01-15 07:23:00,33.8,0.8,30.31,ENE,60,0.0,0.0,24,0.00,BKN,FEW,0.00,22.1,WeatherDisplay:10.37,2013-01-15 15:23:00,
2013-01-15 07:24:00,34.0,0.9,30.31,East,80,0.0,0.0,24,0.00,BKN,FEW,0.00,20.0,WeatherDisplay:10.37,2013-01-15 15:24:00,
2013-01-15 07:25:00,34.0,0.9,30.31,East,84,0.0,0.0,24,0.00,BKN,FEW,0.00,22.1,WeatherDisplay:10.37,2013-01-15 15:25:00,
2013-01-15 07:27:00,34.1,1.9,30.31,East,89,0.0,0.0,25,0.00,BKN,FEW,0.00,24.2,WeatherDisplay:10.37,2013-01-15 15:27:00,
2013-01-15 07:28:00,34.1,1.0,30.31,East,89,0.0,0.0,24,0.00,BKN,FEW,0.00,26.3,WeatherDisplay:10.37,2013-01-15 15:28:00,
2013-01-15 07:31:00,34.3,2.1,30.31,East,90,0.0,0.0,25,0.00,CLR,FEW,0.00,79.8,WeatherDisplay:10.37,2013-01-15 15:31:00,
2013-01-15 07:33:00,34.4,2.1,30.31,East,90,0.0,0.0,25,0.00,CLR,FEW,0.00,87.2,WeatherDisplay:10.37,2013-01-15 15:33:00,
2013-01-15 07:36:00,34.9,2.6,30.31,East,90,0.0,0.0,25,0.00,CLR,FEW,0.00,97.7,WeatherDisplay:10.37,2013-01-15 15:36:00,
2013-01-15 07:37:00,35.0,2.7,30.31,East,90,0.0,0.0,25,0.00,CLR,FEW,0.00,101.9,WeatherDisplay:10.37,2013-01-15 15:37:00,
2013-01-15 07:38:00,35.0,1.8,30.31,East,90,0.0,0.0,24,0.00,CLR,FEW,0.00,101.9,WeatherDisplay:10.37,2013-01-15 15:38:00,
2013-01-15 07:40:00,35.3,2.9,30.31,East,90,0.0,0.0,25,0.00,CLR,FEW,0.00,109.2,WeatherDisplay:10.37,2013-01-15 15:40:00,
2013-01-15 07:41:00,35.6,2.3,30.31,East,90,0.0,0.0,24,0.00,CLR,FEW,0.00,116.6,WeatherDisplay:10.37,2013-01-15 15:41:00,
2013-01-15 07:42:00,35.6,2.3,30.31,East,90,0.0,0.0,24,0.00,CLR,FEW,0.00,118.7,WeatherDisplay:10.37,2013-01-15 15:42:00,
2013-01-15 07:44:00,35.9,2.5,30.31,East,90,0.2,0.0,24,0.00,CLR,FEW,0.00,121.8,WeatherDisplay:10.37,2013-01-15 15:44:00,
2013-01-15 07:46:00,36.3,2.9,30.32,East,90,0.0,0.0,24,0.00,CLR,FEW,0.00,133.3,WeatherDisplay:10.37,2013-01-15 15:46:00,
2013-01-15 07:48:00,36.8,2.4,30.32,East,90,0.0,0.0,23,0.00,CLR,FEW,0.00,138.6,WeatherDisplay:10.37,2013-01-15 15:48:00,
2013-01-15 07:49:00,36.8,2.4,30.32,East,90,0.0,0.0,23,0.00,CLR,FEW,0.00,138.6,WeatherDisplay:10.37,2013-01-15 15:49:00,
2013-01-15 07:50:00,37.0,2.6,30.32,East,90,0.0,0.0,23,0.00,CLR,FEW,0.00,143.8,WeatherDisplay:10.37,2013-01-15 15:50:00,
2013-01-15 07:53:00,37.5,3.0,30.32,East,90,0.0,0.0,23,0.00,CLR,FEW,0.00,151.2,WeatherDisplay:10.37,2013-01-15 15:53:00,
2013-01-15 07:55:00,37.8,4.2,30.32,East,90,0.0,0.0,24,0.00,CLR,FEW,0.00,156.5,WeatherDisplay:10.37,2013-01-15 15:55:00,
2013-01-15 07:56:00,37.8,3.2,30.32,East,90,0.0,0.0,23,0.00,CLR,FEW,0.00,158.6,WeatherDisplay:10.37,2013-01-15 15:56:00,
2013-01-15 07:58:00,38.2,3.6,30.32,East,90,0.0,0.0,23,0.00,CLR,FEW,0.00,163.8,WeatherDisplay:10.37,2013-01-15 15:58:00,
2013-01-15 08:01:00,38.3,4.6,30.33,East,90,0.0,0.0,24,0.00,CLR,FEW,0.00,171.2,WeatherDisplay:10.37,2013-01-15 16:01:00,
2013-01-15 08:02:00,38.6,4.9,30.33,East,90,0.0,0.0,24,0.00,CLR,FEW,0.00,175.3,WeatherDisplay:10.37,2013-01-15 16:02:00,
2013-01-15 08:04:00,38.9,4.2,30.33,East,90,0.0,0.0,23,0.00,CLR,FEW,0.00,180.6,WeatherDisplay:10.37,2013-01-15 16:04:00,
2013-01-15 08:05:00,39.3,4.5,30.33,East,90,0.0,0.0,23,0.00,CLR,FEW,0.00,182.7,WeatherDisplay:10.37,2013-01-15 16:05:00,
2013-01-15 08:07:00,39.8,4.0,30.33,East,90,0.0,0.0,22,0.00,CLR,FEW,0.00,188.0,WeatherDisplay:10.37,2013-01-15 16:07:00,
2013-01-15 08:08:00,40.2,4.3,30.33,East,90,0.0,0.0,22,0.00,CLR,FEW,0.00,192.2,WeatherDisplay:10.37,2013-01-15 16:08:00,
2013-01-15 08:10:00,40.5,4.6,30.33,East,90,0.0,0.0,22,0.00,CLR,FEW,0.00,197.4,WeatherDisplay:10.37,2013-01-15 16:10:00,
2013-01-15 08:11:00,40.8,4.8,30.33,East,90,0.0,0.0,22,0.00,CLR,FEW,0.00,199.5,WeatherDisplay:10.37,2013-01-15 16:11:00,
2013-01-15 08:12:00,41.2,5.2,30.33,East,90,0.0,0.0,22,0.00,CLR,FEW,0.00,204.8,WeatherDisplay:10.37,2013-01-15 16:12:00,
2013-01-15 08:13:00,41.2,5.2,30.33,East,90,0.0,0.0,22,0.00,CLR,FEW,0.00,206.9,WeatherDisplay:10.37,2013-01-15 16:13:00,
2013-01-15 08:15:00,41.2,5.2,30.34,East,90,0.0,0.0,22,0.00,CLR,FEW,0.00,212.1,WeatherDisplay:10.37,2013-01-15 16:15:00,
2013-01-15 08:16:00,41.1,5.1,30.34,East,90,0.0,0.0,22,0.00,CLR,FEW,0.00,214.2,WeatherDisplay:10.37,2013-01-15 16:16:00,
2013-01-15 08:18:00,41.3,5.2,30.34,East,90,0.0,0.0,22,0.00,CLR,FEW,0.00,223.7,WeatherDisplay:10.37,2013-01-15 16:18:00,
2013-01-15 08:20:00,41.8,5.7,30.34,East,90,0.0,0.0,22,0.00,CLR,FEW,0.00,228.9,WeatherDisplay:10.37,2013-01-15 16:20:00,
2013-01-15 08:22:00,42.2,3.9,30.34,East,90,0.0,0.0,20,0.00,CLR,FEW,0.00,236.2,WeatherDisplay:10.37,2013-01-15 16:22:00,
2013-01-15 08:23:00,42.3,4.0,30.34,East,90,0.0,0.0,20,0.00,CLR,FEW,0.00,238.4,WeatherDisplay:10.37,2013-01-15 16:23:00,
2013-01-15 08:24:00,42.5,4.2,30.34,East,90,0.0,0.0,20,0.00,CLR,FEW,0.00,238.4,WeatherDisplay:10.37,2013-01-15 16:24:00,
2013-01-15 08:25:00,42.8,3.3,30.34,East,90,0.0,0.0,19,0.00,CLR,FEW,0.00,241.5,WeatherDisplay:10.37,2013-01-15 16:25:00,
2013-01-15 08:28:00,43.1,3.6,30.34,East,90,0.0,0.0,19,0.00,CLR,FEW,0.00,253.1,WeatherDisplay:10.37,2013-01-15 16:28:00,
2013-01-15 08:30:00,43.1,2.4,30.34,East,90,0.0,0.0,18,0.00,CLR,FEW,0.00,256.2,WeatherDisplay:10.37,2013-01-15 16:30:00,
2013-01-15 08:33:00,43.1,2.4,30.34,East,90,0.0,0.0,18,0.00,CLR,FEW,0.00,263.6,WeatherDisplay:10.37,2013-01-15 16:33:00,
2013-01-15 08:34:00,43.1,2.4,30.34,East,90,0.0,0.0,18,0.00,CLR,FEW,0.00,265.7,WeatherDisplay:10.37,2013-01-15 16:34:00,
2013-01-15 08:35:00,42.9,4.5,30.34,East,90,0.0,0.0,20,0.00,CLR,FEW,0.00,270.9,WeatherDisplay:10.37,2013-01-15 16:35:00,
2013-01-15 08:38:00,43.2,5.8,30.34,East,90,0.0,0.0,21,0.00,CLR,FEW,0.00,278.3,WeatherDisplay:10.37,2013-01-15 16:38:00,
2013-01-15 08:39:00,43.3,5.9,30.34,East,90,0.0,0.0,21,0.00,CLR,FEW,0.00,280.4,WeatherDisplay:10.37,2013-01-15 16:39:00,
2013-01-15 08:40:00,43.6,6.2,30.34,East,90,0.0,0.0,21,0.00,CLR,FEW,0.00,287.7,WeatherDisplay:10.37,2013-01-15 16:40:00,
2013-01-15 08:41:00,43.6,6.2,30.34,East,90,0.0,0.0,21,0.00,CLR,FEW,0.00,287.7,WeatherDisplay:10.37,2013-01-15 16:41:00,
2013-01-15 08:43:00,44.1,5.5,30.34,East,90,0.0,0.0,20,0.00,CLR,FEW,0.00,295.1,WeatherDisplay:10.37,2013-01-15 16:43:00,
2013-01-15 08:44:00,44.1,4.4,30.34,East,90,0.0,0.0,19,0.00,CLR,FEW,0.00,297.2,WeatherDisplay:10.37,2013-01-15 16:44:00,
2013-01-15 08:46:00,44.3,4.6,30.34,East,90,0.0,0.0,19,0.00,CLR,FEW,0.00,301.4,WeatherDisplay:10.37,2013-01-15 16:46:00,
2013-01-15 08:49:00,44.9,5.1,30.34,East,90,0.0,0.0,19,0.00,CLR,FEW,0.00,311.9,WeatherDisplay:10.37,2013-01-15 16:49:00,
2013-01-15 08:51:00,44.9,3.9,30.34,East,90,0.0,0.0,18,0.00,CLR,FEW,0.00,316.1,WeatherDisplay:10.37,2013-01-15 16:51:00,
2013-01-15 08:54:00,45.2,2.9,30.34,East,90,0.0,0.0,17,0.00,CLR,FEW,0.00,326.6,WeatherDisplay:10.37,2013-01-15 16:54:00,
2013-01-15 08:57:00,45.2,2.9,30.34,East,90,0.0,0.0,17,0.00,CLR,FEW,0.00,331.8,WeatherDisplay:10.37,2013-01-15 16:57:00,
2013-01-15 08:59:00,45.5,3.1,30.34,East,90,0.0,0.0,17,0.00,CLR,FEW,0.00,338.1,WeatherDisplay:10.37,2013-01-15 16:59:00,
2013-01-15 09:03:00,45.5,1.8,30.35,East,90,0.0,0.0,16,0.00,CLR,FEW,0.00,346.5,WeatherDisplay:10.37,2013-01-15 17:03:00,
2013-01-15 09:04:00,45.5,1.8,30.35,East,90,0.0,0.0,16,0.00,CLR,FEW,0.00,350.7,WeatherDisplay:10.37,2013-01-15 17:04:00,
2013-01-15 09:06:00,45.7,2.0,30.35,East,90,0.0,0.0,16,0.00,CLR,FEW,0.00,356.0,WeatherDisplay:10.37,2013-01-15 17:06:00,
2013-01-15 09:08:00,46.1,3.6,30.35,East,90,0.0,0.0,17,0.00,CLR,FEW,0.00,360.2,WeatherDisplay:10.37,2013-01-15 17:08:00,
2013-01-15 09:09:00,46.4,3.9,30.35,East,90,0.0,0.0,17,0.00,CLR,FEW,0.00,365.4,WeatherDisplay:10.37,2013-01-15 17:09:00,
2013-01-15 09:10:00,46.4,3.9,30.35,East,90,0.0,0.0,17,0.00,CLR,FEW,0.00,365.4,WeatherDisplay:10.37,2013-01-15 17:10:00,
2013-01-15 09:12:00,46.8,2.9,30.35,East,90,0.0,0.0,16,0.00,CLR,FEW,0.00,372.8,WeatherDisplay:10.37,2013-01-15 17:12:00,
2013-01-15 09:13:00,47.0,1.6,30.35,East,90,0.0,0.0,15,0.00,CLR,FEW,0.00,372.8,WeatherDisplay:10.37,2013-01-15 17:13:00,
2013-01-15 09:15:00,47.3,1.9,30.35,East,90,0.0,0.0,15,0.00,CLR,FEW,0.00,380.1,WeatherDisplay:10.37,2013-01-15 17:15:00,
2013-01-15 09:17:00,47.6,2.1,30.35,East,90,0.0,0.0,15,0.00,CLR,FEW,0.00,382.2,WeatherDisplay:10.37,2013-01-15 17:17:00,
2013-01-15 09:18:00,47.7,0.7,30.35,East,90,0.0,0.0,14,0.00,CLR,FEW,0.00,384.3,WeatherDisplay:10.37,2013-01-15 17:18:00,
2013-01-15 09:19:00,48.0,2.5,30.35,East,90,0.0,0.0,15,0.00,CLR,FEW,0.00,391.7,WeatherDisplay:10.37,2013-01-15 17:19:00,
2013-01-15 09:21:00,48.3,1.2,30.35,East,90,0.0,0.0,14,0.00,CLR,FEW,0.00,392.7,WeatherDisplay:10.37,2013-01-15 17:21:00,
2013-01-15 09:23:00,48.3,1.2,30.35,East,90,0.0,0.0,14,0.00,CLR,FEW,0.00,399.0,WeatherDisplay:10.37,2013-01-15 17:23:00,
2013-01-15 09:25:00,48.5,1.4,30.35,East,90,0.0,0.0,14,0.00,CLR,FEW,0.00,402.2,WeatherDisplay:10.37,2013-01-15 17:25:00,
2013-01-15 09:26:00,48.5,-0.2,30.35,East,90,0.0,0.0,13,0.00,CLR,FEW,0.00,404.3,WeatherDisplay:10.37,2013-01-15 17:26:00,
2013-01-15 09:28:00,48.6,1.5,30.35,East,90,0.0,0.0,14,0.00,CLR,FEW,0.00,407.4,WeatherDisplay:10.37,2013-01-15 17:28:00,
2013-01-15 09:29:00,48.6,2.9,30.35,East,90,0.0,0.0,15,0.00,CLR,FEW,0.00,411.6,WeatherDisplay:10.37,2013-01-15 17:29:00,
2013-01-15 09:31:00,48.8,0.0,30.35,East,90,0.0,0.0,13,0.00,CLR,FEW,0.00,415.8,WeatherDisplay:10.37,2013-01-15 17:31:00,
2013-01-15 09:34:00,48.9,1.7,30.35,East,90,0.0,0.0,14,0.00,CLR,FEW,0.00,424.2,WeatherDisplay:10.37,2013-01-15 17:34:00,
2013-01-15 09:35:00,48.9,1.7,30.35,East,90,0.0,0.0,14,0.00,CLR,FEW,0.00,424.2,WeatherDisplay:10.37,2013-01-15 17:35:00,
2013-01-15 09:36:00,48.8,-1.7,30.35,East,90,0.0,0.0,12,0.00,CLR,FEW,0.00,428.4,WeatherDisplay:10.37,2013-01-15 17:36:00,
2013-01-15 09:37:00,48.6,-1.8,30.35,East,90,0.0,0.0,12,0.00,CLR,FEW,0.00,430.5,WeatherDisplay:10.37,2013-01-15 17:37:00,
2013-01-15 09:39:00,48.2,2.6,30.35,East,90,0.0,0.0,15,0.00,CLR,FEW,0.00,435.8,WeatherDisplay:10.37,2013-01-15 17:39:00,
2013-01-15 09:40:00,48.0,2.5,30.35,East,90,0.0,0.0,15,0.00,CLR,FEW,0.00,437.9,WeatherDisplay:10.37,2013-01-15 17:40:00,
2013-01-15 09:43:00,47.7,0.7,30.35,East,90,0.0,0.0,14,0.00,CLR,FEW,0.00,443.1,WeatherDisplay:10.37,2013-01-15 17:43:00,
2013-01-15 09:45:00,47.4,0.5,30.36,East,90,0.0,0.0,14,0.00,CLR,FEW,0.00,450.5,WeatherDisplay:10.37,2013-01-15 17:45:00,
2013-01-15 09:46:00,47.3,0.4,30.36,East,90,0.0,0.0,14,0.00,CLR,FEW,0.00,450.5,WeatherDisplay:10.37,2013-01-15 17:46:00,
2013-01-15 09:48:00,47.3,1.9,30.36,East,90,0.0,0.0,15,0.00,CLR,FEW,0.00,453.6,WeatherDisplay:10.37,2013-01-15 17:48:00,
2013-01-15 09:49:00,47.3,1.9,30.36,SW,233,0.0,0.0,15,0.00,CLR,FEW,0.00,455.7,WeatherDisplay:10.37,2013-01-15 17:49:00,
2013-01-15 09:51:00,47.0,-1.4,30.36,SW,233,0.0,0.0,13,0.00,CLR,FEW,0.00,461.0,WeatherDisplay:10.37,2013-01-15 17:51:00,
2013-01-15 09:54:00,47.1,0.2,30.36,SW,232,0.0,0.0,14,0.00,CLR,FEW,0.00,468.3,WeatherDisplay:10.37,2013-01-15 17:54:00,
2013-01-15 09:55:00,47.1,-1.3,30.36,SW,233,0.0,0.0,13,0.00,CLR,FEW,0.00,470.4,WeatherDisplay:10.37,2013-01-15 17:55:00,
2013-01-15 09:56:00,47.0,-6.9,30.36,SW,233,0.0,0.0,10,0.00,CLR,FEW,0.00,474.6,WeatherDisplay:10.37,2013-01-15 17:56:00,
2013-01-15 10:00:00,46.7,-0.1,30.36,WSW,244,0.1,1.1,14,0.00,CLR,FEW,0.00,482.0,WeatherDisplay:10.37,2013-01-15 18:00:00,
2013-01-15 10:02:00,46.5,-0.2,30.36,WSW,244,0.7,0.0,14,0.00,CLR,FEW,0.00,484.1,WeatherDisplay:10.37,2013-01-15 18:02:00,
2013-01-15 10:06:00,46.5,1.2,30.36,WSW,244,0.0,0.0,15,0.00,CLR,FEW,0.00,487.2,WeatherDisplay:10.37,2013-01-15 18:06:00,
2013-01-15 10:07:00,46.5,1.2,30.36,WSW,244,0.0,0.0,15,0.00,CLR,FEW,0.00,482.0,WeatherDisplay:10.37,2013-01-15 18:07:00,
2013-01-15 10:09:00,46.7,-0.1,30.36,WSW,244,0.1,2.3,14,0.00,CLR,FEW,0.00,492.5,WeatherDisplay:10.37,2013-01-15 18:09:00,
2013-01-15 10:11:00,46.8,1.5,30.36,WSW,244,0.4,2.3,15,0.00,CLR,FEW,0.00,499.8,WeatherDisplay:10.37,2013-01-15 18:11:00,
2013-01-15 10:12:00,47.0,1.6,30.36,WSW,244,0.0,2.3,15,0.00,CLR,FEW,0.00,504.0,WeatherDisplay:10.37,2013-01-15 18:12:00,
2013-01-15 10:14:00,47.1,0.2,30.35,WSW,244,0.0,0.0,14,0.00,CLR,FEW,0.00,506.1,WeatherDisplay:10.37,2013-01-15 18:14:00,
2013-01-15 10:17:00,47.3,1.9,30.35,WSW,244,0.0,0.0,15,0.00,CLR,FEW,0.00,507.2,WeatherDisplay:10.37,2013-01-15 18:17:00,
2013-01-15 10:18:00,47.4,0.5,30.35,WSW,244,0.0,0.0,14,0.00,CLR,FEW,0.00,511.4,WeatherDisplay:10.37,2013-01-15 18:18:00,
2013-01-15 10:22:00,47.3,-1.2,30.35,SSW,200,0.0,1.1,13,0.00,CLR,FEW,0.00,520.8,WeatherDisplay:10.37,2013-01-15 18:22:00,
2013-01-15 10:23:00,47.3,0.4,30.35,SSW,200,0.0,1.1,14,0.00,CLR,FEW,0.00,520.8,WeatherDisplay:10.37,2013-01-15 18:23:00,
2013-01-15 10:24:00,47.4,-1.1,30.35,SW,234,0.0,0.0,13,0.00,CLR,FEW,0.00,521.9,WeatherDisplay:10.37,2013-01-15 18:24:00,
2013-01-15 10:27:00,47.7,-0.8,30.35,WSW,240,0.0,0.0,13,0.00,CLR,FEW,0.00,526.1,WeatherDisplay:10.37,2013-01-15 18:27:00,
2013-01-15 10:28:00,47.7,0.7,30.35,WSW,238,0.0,0.0,14,0.00,CLR,FEW,0.00,526.1,WeatherDisplay:10.37,2013-01-15 18:28:00,
2013-01-15 10:29:00,47.9,-0.7,30.34,WSW,239,0.0,0.0,13,0.00,CLR,FEW,0.00,529.2,WeatherDisplay:10.37,2013-01-15 18:29:00,
2013-01-15 10:32:00,48.0,-0.6,30.34,WSW,240,0.4,3.5,13,0.00,CLR,FEW,0.00,537.6,WeatherDisplay:10.37,2013-01-15 18:32:00,
2013-01-15 10:33:00,48.0,-0.6,30.34,WSW,241,0.0,0.0,13,0.00,CLR,FEW,0.00,537.6,WeatherDisplay:10.37,2013-01-15 18:33:00,
2013-01-15 10:34:00,48.0,1.0,30.34,WSW,246,0.0,0.0,14,0.00,CLR,FEW,0.00,538.7,WeatherDisplay:10.37,2013-01-15 18:34:00,
2013-01-15 10:38:00,48.3,1.2,30.34,WSW,246,0.5,0.0,14,0.00,CLR,FEW,0.00,548.1,WeatherDisplay:10.37,2013-01-15 18:38:00,
2013-01-15 10:39:00,48.5,-0.2,30.34,WSW,246,0.0,0.0,13,0.00,CLR,FEW,0.00,548.1,WeatherDisplay:10.37,2013-01-15 18:39:00,
2013-01-15 10:43:00,48.8,0.0,30.34,WSW,244,0.3,1.1,13,0.00,CLR,FEW,0.00,548.1,WeatherDisplay:10.37,2013-01-15 18:43:00,
2013-01-15 10:44:00,48.8,0.0,30.34,WSW,244,0.3,1.1,13,0.00,CLR,FEW,0.00,548.1,WeatherDisplay:10.37,2013-01-15 18:44:00,
2013-01-15 10:48:00,48.6,1.5,30.33,WSW,238,0.3,1.1,14,0.00,CLR,FEW,0.00,484.1,WeatherDisplay:10.37,2013-01-15 18:48:00,
2013-01-15 10:49:00,48.6,-0.1,30.33,WSW,244,1.9,6.5,13,0.00,CLR,FEW,0.00,487.2,WeatherDisplay:10.37,2013-01-15 18:49:00,
2013-01-15 10:50:00,48.6,-0.1,30.33,WSW,246,2.5,6.9,13,0.00,CLR,FEW,0.00,489.3,WeatherDisplay:10.37,2013-01-15 18:50:00,
2013-01-15 10:54:00,48.9,1.7,30.33,WSW,246,0.0,0.0,14,0.00,CLR,FEW,0.00,538.7,WeatherDisplay:10.37,2013-01-15 18:54:00,
2013-01-15 10:57:00,49.2,0.3,30.33,WSW,246,0.0,0.0,13,0.00,CLR,FEW,0.00,570.1,WeatherDisplay:10.37,2013-01-15 18:57:00,
2013-01-15 10:59:00,49.4,2.1,30.32,WSW,246,0.0,1.1,14,0.00,CLR,FEW,0.00,557.6,WeatherDisplay:10.37,2013-01-15 18:59:00,
2013-01-15 11:00:00,49.5,2.2,30.32,WSW,250,0.0,0.0,14,0.00,CLR,FEW,0.00,555.5,WeatherDisplay:10.37,2013-01-15 19:00:00,
2013-01-15 11:01:00,49.6,0.7,30.32,WSW,249,0.1,1.3,13,0.00,CLR,FEW,0.00,564.9,WeatherDisplay:10.37,2013-01-15 19:01:00,
2013-01-15 11:02:00,49.6,2.3,30.32,WSW,250,0.1,1.1,14,0.00,CLR,FEW,0.00,564.9,WeatherDisplay:10.37,2013-01-15 19:02:00,
2013-01-15 11:05:00,49.9,2.5,30.32,WSW,238,0.0,0.0,14,0.00,CLR,FEW,0.00,567.0,WeatherDisplay:10.37,2013-01-15 19:05:00,
2013-01-15 11:06:00,49.9,0.9,30.32,WSW,237,0.2,1.3,13,0.00,CLR,FEW,0.00,568.1,WeatherDisplay:10.37,2013-01-15 19:06:00,
2013-01-15 11:07:00,49.8,0.8,30.32,SW,227,0.7,1.3,13,0.00,CLR,FEW,0.00,574.4,WeatherDisplay:10.37,2013-01-15 19:07:00,
2013-01-15 11:11:00,48.9,0.1,30.32,SSW,211,0.0,0.0,13,0.00,CLR,FEW,0.00,577.5,WeatherDisplay:10.37,2013-01-15 19:11:00,
2013-01-15 11:12:00,48.8,0.0,30.32,SSW,211,0.0,0.0,13,0.00,CLR,FEW,0.00,575.4,WeatherDisplay:10.37,2013-01-15 19:12:00,
2013-01-15 11:14:00,48.8,0.0,30.31,SSW,206,2.4,8.1,13,0.00,CLR,FEW,0.00,581.7,WeatherDisplay:10.37,2013-01-15 19:14:00,
2013-01-15 11:17:00,48.6,-0.1,30.31,SSW,206,0.0,0.0,13,0.00,CLR,FEW,0.00,598.5,WeatherDisplay:10.37,2013-01-15 19:17:00,
2013-01-15 11:18:00,48.6,-1.8,30.31,SSW,206,0.0,0.0,12,0.00,CLR,FEW,0.00,598.5,WeatherDisplay:10.37,2013-01-15 19:18:00,
2013-01-15 11:21:00,49.1,0.3,30.31,WSW,237,0.0,0.0,13,0.00,CLR,FEW,0.00,594.3,WeatherDisplay:10.37,2013-01-15 19:21:00,
2013-01-15 11:23:00,49.5,0.6,30.31,WSW,247,0.0,0.0,13,0.00,CLR,FEW,0.00,603.8,WeatherDisplay:10.37,2013-01-15 19:23:00,
2013-01-15 11:25:00,49.8,0.8,30.31,WSW,244,2.4,7.8,13,0.00,CLR,FEW,0.00,591.2,WeatherDisplay:10.37,2013-01-15 19:25:00,
2013-01-15 11:26:00,49.8,-0.9,30.31,WSW,245,3.9,6.5,12,0.00,CLR,FEW,0.00,591.2,WeatherDisplay:10.37,2013-01-15 19:26:00,
2013-01-15 11:28:00,49.8,-0.9,30.31,West,259,1.2,3.5,12,0.00,CLR,FEW,0.00,572.3,WeatherDisplay:10.37,2013-01-15 19:28:00,
2013-01-15 11:30:00,49.6,-1.0,30.30,West,259,0.0,0.0,12,0.00,CLR,FEW,0.00,529.2,WeatherDisplay:10.37,2013-01-15 19:30:00,
2013-01-15 11:31:00,49.6,-1.0,30.30,West,259,0.0,0.0,12,0.00,CLR,FEW,0.00,529.2,WeatherDisplay:10.37,2013-01-15 19:31:00,
2013-01-15 11:33:00,49.6,0.7,30.30,West,259,0.0,0.0,13,0.00,CLR,FEW,0.00,538.7,WeatherDisplay:10.37,2013-01-15 19:33:00,
2013-01-15 11:35:00,50.1,-0.6,30.30,WSW,257,0.2,1.3,12,0.00,CLR,FEW,0.00,567.0,WeatherDisplay:10.37,2013-01-15 19:35:00,
2013-01-15 11:36:00,50.1,-0.6,30.30,WSW,257,0.1,1.1,12,0.00,CLR,FEW,0.00,567.0,WeatherDisplay:10.37,2013-01-15 19:36:00,
2013-01-15 11:39:00,50.7,1.5,30.30,WSW,242,0.0,0.0,13,0.00,CLR,FEW,0.00,603.8,WeatherDisplay:10.37,2013-01-15 19:39:00,
2013-01-15 11:40:00,50.7,-0.2,30.30,WSW,242,0.0,0.0,12,0.00,CLR,FEW,0.00,603.8,WeatherDisplay:10.37,2013-01-15 19:40:00,
2013-01-15 11:41:00,50.7,-0.2,30.30,WSW,242,0.0,0.0,12,0.00,CLR,FEW,0.00,603.8,WeatherDisplay:10.37,2013-01-15 19:41:00,
2013-01-15 11:44:00,50.7,-0.2,30.30,West,279,0.9,5.2,12,0.00,CLR,FEW,0.00,606.9,WeatherDisplay:10.37,2013-01-15 19:44:00,
2013-01-15 11:46:00,50.8,1.6,30.30,West,278,0.0,5.8,13,0.00,CLR,FEW,0.00,598.5,WeatherDisplay:10.37,2013-01-15 19:46:00,
2013-01-15 11:50:00,50.5,-0.3,30.30,SW,215,0.0,0.0,12,0.00,CLR,FEW,0.00,599.6,WeatherDisplay:10.37,2013-01-15 19:50:00,
2013-01-15 11:51:00,50.4,-0.4,30.30,SW,215,0.0,0.0,12,0.00,CLR,FEW,0.00,599.6,WeatherDisplay:10.37,2013-01-15 19:51:00,
2013-01-15 11:52:00,50.4,-0.4,30.30,SW,215,0.0,0.0,12,0.00,CLR,FEW,0.00,599.6,WeatherDisplay:10.37,2013-01-15 19:52:00,
2013-01-15 11:53:00,50.4,-0.4,30.30,SW,215,0.0,0.0,12,0.00,CLR,FEW,0.00,579.6,WeatherDisplay:10.37,2013-01-15 19:53:00,
2013-01-15 11:55:00,50.8,-0.1,30.30,SW,215,0.0,0.0,12,0.00,CLR,FEW,0.00,594.3,WeatherDisplay:10.37,2013-01-15 19:55:00,
2013-01-15 11:56:00,51.0,0.1,30.30,WSW,250,1.0,0.0,12,0.00,CLR,FEW,0.00,575.4,WeatherDisplay:10.37,2013-01-15 19:56:00,
2013-01-15 11:57:00,51.1,1.9,30.30,WSW,250,0.0,3.5,13,0.00,CLR,FEW,0.00,592.2,WeatherDisplay:10.37,2013-01-15 19:57:00,
2013-01-15 11:58:00,51.3,0.3,30.30,WSW,250,0.0,0.0,12,0.00,CLR,FEW,0.00,599.6,WeatherDisplay:10.37,2013-01-15 19:58:00,
2013-01-15 12:01:00,51.4,0.4,30.30,West,269,0.9,2.3,12,0.00,CLR,FEW,0.00,598.5,WeatherDisplay:10.37,2013-01-15 20:01:00,
2013-01-15 12:02:00,51.4,0.4,30.30,West,269,0.8,5.8,12,0.00,CLR,FEW,0.00,598.5,WeatherDisplay:10.37,2013-01-15 20:02:00,
2013-01-15 12:04:00,51.3,2.0,30.30,SW,234,0.2,0.0,13,0.00,CLR,FEW,0.00,598.5,WeatherDisplay:10.37,2013-01-15 20:04:00,
2013-01-15 12:07:00,51.3,0.3,30.30,SW,232,0.0,0.0,12,0.00,CLR,FEW,0.00,598.5,WeatherDisplay:10.37,2013-01-15 20:07:00,
2013-01-15 12:09:00,51.4,2.1,30.30,WSW,246,0.3,5.8,13,0.00,CLR,FEW,0.00,598.5,WeatherDisplay:10.37,2013-01-15 20:09:00,
2013-01-15 12:12:00,52.0,2.6,30.30,SW,225,0.2,1.3,13,0.00,CLR,FEW,0.00,596.4,WeatherDisplay:10.37,2013-01-15 20:12:00,
2013-01-15 12:13:00,51.9,-1.1,30.30,SSW,204,0.6,2.3,11,0.00,CLR,FEW,0.00,596.4,WeatherDisplay:10.37,2013-01-15 20:13:00,
2013-01-15 12:15:00,52.0,0.9,30.29,NW,309,0.0,0.0,12,0.00,CLR,FEW,0.00,596.4,WeatherDisplay:10.37,2013-01-15 20:15:00,
2013-01-15 12:17:00,51.9,0.8,30.29,WSW,254,3.8,5.2,12,0.00,CLR,FEW,0.00,594.3,WeatherDisplay:10.37,2013-01-15 20:17:00,
2013-01-15 12:19:00,51.7,2.3,30.29,WSW,254,0.0,0.0,13,0.00,CLR,FEW,0.00,592.2,WeatherDisplay:10.37,2013-01-15 20:19:00,
2013-01-15 12:20:00,51.7,2.3,30.29,WSW,254,0.0,0.0,13,0.00,CLR,FEW,0.00,591.2,WeatherDisplay:10.37,2013-01-15 20:20:00,
2013-01-15 12:21:00,51.7,0.6,30.29,WSW,254,0.0,0.0,12,0.00,CLR,FEW,0.00,592.2,WeatherDisplay:10.37,2013-01-15 20:21:00,
2013-01-15 12:22:00,51.9,0.8,30.29,WSW,254,0.0,0.0,12,0.00,CLR,FEW,0.00,592.2,WeatherDisplay:10.37,2013-01-15 20:22:00,
2013-01-15 12:25:00,52.2,2.7,30.29,SW,232,0.1,2.3,13,0.00,CLR,FEW,0.00,591.2,WeatherDisplay:10.37,2013-01-15 20:25:00,
2013-01-15 12:26:00,52.3,1.1,30.29,SSW,211,0.0,2.3,12,0.00,CLR,FEW,0.00,591.2,WeatherDisplay:10.37,2013-01-15 20:26:00,
2013-01-15 12:27:00,52.3,1.1,30.29,SSW,210,0.0,0.0,12,0.00,CLR,FEW,0.00,591.2,WeatherDisplay:10.37,2013-01-15 20:27:00,
2013-01-15 12:30:00,52.0,2.6,30.28,SSW,209,0.0,0.0,13,0.00,CLR,FEW,0.00,589.1,WeatherDisplay:10.37,2013-01-15 20:30:00,
2013-01-15 12:31:00,52.2,1.0,30.28,West,273,0.0,0.0,12,0.00,CLR,FEW,0.00,587.0,WeatherDisplay:10.37,2013-01-15 20:31:00,
2013-01-15 12:32:00,52.2,1.0,30.28,West,273,0.0,0.0,12,0.00,CLR,FEW,0.00,587.0,WeatherDisplay:10.37,2013-01-15 20:32:00,
2013-01-15 12:35:00,52.2,2.7,30.28,West,273,0.0,0.0,13,0.00,CLR,FEW,0.00,584.9,WeatherDisplay:10.37,2013-01-15 20:35:00,
2013-01-15 12:36:00,52.3,1.1,30.28,West,273,0.0,0.0,12,0.00,CLR,FEW,0.00,584.9,WeatherDisplay:10.37,2013-01-15 20:36:00,
2013-01-15 12:38:00,52.3,1.1,30.28,West,273,0.0,0.0,12,0.00,CLR,FEW,0.00,581.7,WeatherDisplay:10.37,2013-01-15 20:38:00,
2013-01-15 12:41:00,52.5,3.0,30.28,West,273,0.0,0.0,13,0.00,CLR,FEW,0.00,579.6,WeatherDisplay:10.37,2013-01-15 20:41:00,
2013-01-15 12:43:00,52.8,3.2,30.28,West,273,0.0,0.0,13,0.00,CLR,FEW,0.00,577.5,WeatherDisplay:10.37,2013-01-15 20:43:00,
2013-01-15 12:44:00,52.9,3.3,30.27,West,273,0.3,0.0,13,0.00,CLR,FEW,0.00,577.5,WeatherDisplay:10.37,2013-01-15 20:44:00,
2013-01-15 12:46:00,52.9,1.6,30.27,West,273,0.0,0.0,12,0.00,CLR,FEW,0.00,575.4,WeatherDisplay:10.37,2013-01-15 20:46:00,
2013-01-15 12:49:00,53.1,3.5,30.27,West,273,0.0,0.0,13,0.00,CLR,FEW,0.00,575.4,WeatherDisplay:10.37,2013-01-15 20:49:00,
2013-01-15 12:51:00,53.2,3.5,30.27,West,272,0.9,3.5,13,0.00,CLR,FEW,0.00,574.4,WeatherDisplay:10.37,2013-01-15 20:51:00,
2013-01-15 12:52:00,53.3,3.6,30.27,West,272,1.4,5.8,13,0.00,CLR,FEW,0.00,574.4,WeatherDisplay:10.37,2013-01-15 20:52:00,
2013-01-15 12:54:00,53.5,3.8,30.27,WSW,256,1.0,0.0,13,0.00,CLR,FEW,0.00,568.1,WeatherDisplay:10.37,2013-01-15 20:54:00,
2013-01-15 12:56:00,53.1,1.7,30.27,SW,217,0.3,1.1,12,0.00,CLR,FEW,0.00,567.0,WeatherDisplay:10.37,2013-01-15 20:56:00,
2013-01-15 12:57:00,52.9,3.3,30.27,SW,217,0.1,1.3,13,0.00,CLR,FEW,0.00,567.0,WeatherDisplay:10.37,2013-01-15 20:57:00,
2013-01-15 13:01:00,52.8,3.2,30.26,WSW,244,0.0,6.9,13,0.00,CLR,FEW,0.00,562.8,WeatherDisplay:10.37,2013-01-15 21:01:00,
2013-01-15 13:02:00,52.8,3.2,30.26,WSW,244,0.0,6.9,13,0.00,CLR,FEW,0.00,562.8,WeatherDisplay:10.37,2013-01-15 21:02:00,
2013-01-15 13:06:00,52.6,4.7,30.26,WSW,244,0.5,2.6,14,0.00,CLR,FEW,0.00,555.5,WeatherDisplay:10.37,2013-01-15 21:06:00,
2013-01-15 13:07:00,52.8,3.2,30.26,WSW,244,0.5,3.5,13,0.00,CLR,FEW,0.00,555.5,WeatherDisplay:10.37,2013-01-15 21:07:00,
2013-01-15 13:08:00,52.9,4.9,30.26,WSW,244,0.0,0.0,14,0.00,CLR,FEW,0.00,555.5,WeatherDisplay:10.37,2013-01-15 21:08:00,
2013-01-15 13:09:00,53.1,5.1,30.26,WSW,254,1.3,2.6,14,0.00,CLR,FEW,0.00,552.3,WeatherDisplay:10.37,2013-01-15 21:09:00,
2013-01-15 13:11:00,53.2,5.1,30.26,WSW,248,5.5,8.1,14,0.00,CLR,FEW,0.00,550.2,WeatherDisplay:10.37,2013-01-15 21:11:00,
2013-01-15 13:12:00,53.2,5.1,30.26,WSW,248,1.0,8.1,14,0.00,CLR,FEW,0.00,550.2,WeatherDisplay:10.37,2013-01-15 21:12:00,
2013-01-15 13:13:00,53.5,5.4,30.26,WSW,245,0.2,1.3,14,0.00,CLR,FEW,0.00,546.0,WeatherDisplay:10.37,2013-01-15 21:13:00,
2013-01-15 13:14:00,53.6,3.8,30.26,WSW,246,0.0,0.0,13,0.00,CLR,FEW,0.00,546.0,WeatherDisplay:10.37,2013-01-15 21:14:00,
2013-01-15 13:17:00,53.5,3.8,30.26,SW,236,0.0,0.0,13,0.00,CLR,FEW,0.00,545.0,WeatherDisplay:10.37,2013-01-15 21:17:00,
2013-01-15 13:18:00,53.6,5.5,30.26,SW,236,0.0,0.0,14,0.00,CLR,FEW,0.00,542.9,WeatherDisplay:10.37,2013-01-15 21:18:00,
2013-01-15 13:20:00,53.6,5.5,30.26,WSW,238,0.0,0.0,14,0.00,CLR,FEW,0.00,540.8,WeatherDisplay:10.37,2013-01-15 21:20:00,
2013-01-15 13:22:00,53.6,3.8,30.26,SSW,205,1.0,5.2,13,0.00,CLR,FEW,0.00,537.6,WeatherDisplay:10.37,2013-01-15 21:22:00,
2013-01-15 13:23:00,53.5,3.8,30.26,SW,234,0.9,5.8,13,0.00,CLR,FEW,0.00,535.5,WeatherDisplay:10.37,2013-01-15 21:23:00,
2013-01-15 13:25:00,53.5,5.4,30.26,WSW,249,0.0,0.0,14,0.00,CLR,FEW,0.00,531.3,WeatherDisplay:10.37,2013-01-15 21:25:00,
2013-01-15 13:27:00,53.5,5.4,30.26,WSW,246,0.0,1.1,14,0.00,CLR,FEW,0.00,529.2,WeatherDisplay:10.37,2013-01-15 21:27:00,
2013-01-15 13:28:00,53.5,5.4,30.26,WSW,242,0.0,0.0,14,0.00,CLR,FEW,0.00,528.1,WeatherDisplay:10.37,2013-01-15 21:28:00,
2013-01-15 13:29:00,53.6,5.5,30.26,WSW,242,0.0,0.0,14,0.00,CLR,FEW,0.00,528.1,WeatherDisplay:10.37,2013-01-15 21:29:00,
2013-01-15 13:31:00,53.8,5.6,30.26,SW,232,0.0,0.0,14,0.00,CLR,FEW,0.00,521.9,WeatherDisplay:10.37,2013-01-15 21:31:00,
2013-01-15 13:33:00,54.2,5.9,30.26,SW,229,0.0,0.0,14,0.00,CLR,FEW,0.00,520.8,WeatherDisplay:10.37,2013-01-15 21:33:00,
2013-01-15 13:34:00,54.2,5.9,30.26,SW,229,0.0,0.0,14,0.00,CLR,FEW,0.00,518.7,WeatherDisplay:10.37,2013-01-15 21:34:00,
2013-01-15 13:36:00,54.4,7.6,30.26,WSW,250,1.2,5.8,15,0.00,CLR,FEW,0.00,514.5,WeatherDisplay:10.37,2013-01-15 21:36:00,
2013-01-15 13:38:00,54.7,6.3,30.26,SSW,205,0.4,1.1,14,0.00,CLR,FEW,0.00,511.4,WeatherDisplay:10.37,2013-01-15 21:38:00,
2013-01-15 13:39:00,54.7,6.3,30.26,SSW,205,0.4,1.1,14,0.00,CLR,FEW,0.00,511.4,WeatherDisplay:10.37,2013-01-15 21:39:00,
2013-01-15 13:40:00,54.7,4.7,30.26,SSW,205,0.0,0.0,13,0.00,CLR,FEW,0.00,511.4,WeatherDisplay:10.37,2013-01-15 21:40:00,
2013-01-15 13:42:00,54.7,6.3,30.26,SW,225,0.0,0.0,14,0.00,CLR,FEW,0.00,506.1,WeatherDisplay:10.37,2013-01-15 21:42:00,
2013-01-15 13:43:00,54.7,4.7,30.26,SW,225,0.0,0.0,13,0.00,CLR,FEW,0.00,506.1,WeatherDisplay:10.37,2013-01-15 21:43:00,
2013-01-15 13:44:00,54.5,4.6,30.26,SW,225,0.0,0.0,13,0.00,CLR,FEW,0.00,504.0,WeatherDisplay:10.37,2013-01-15 21:44:00,
2013-01-15 13:45:00,54.5,6.2,30.25,SW,225,0.0,0.0,14,0.00,CLR,FEW,0.00,501.9,WeatherDisplay:10.37,2013-01-15 21:45:00,
2013-01-15 13:48:00,54.8,8.0,30.25,SW,225,0.0,0.0,15,0.00,CLR,FEW,0.00,467.3,WeatherDisplay:10.37,2013-01-15 21:48:00,
2013-01-15 13:49:00,55.0,6.6,30.25,SW,224,0.1,1.3,14,0.00,CLR,FEW,0.00,494.6,WeatherDisplay:10.37,2013-01-15 21:49:00,
2013-01-15 13:50:00,55.4,8.4,30.25,SW,225,0.0,1.1,15,0.00,CLR,FEW,0.00,491.4,WeatherDisplay:10.37,2013-01-15 21:50:00,
2013-01-15 13:53:00,55.6,5.4,30.25,SW,224,0.0,0.0,13,0.00,CLR,FEW,0.00,485.1,WeatherDisplay:10.37,2013-01-15 21:53:00,
2013-01-15 13:54:00,55.6,5.4,30.25,SW,223,0.0,0.0,13,0.00,CLR,FEW,0.00,487.2,WeatherDisplay:10.37,2013-01-15 21:54:00,
2013-01-15 13:55:00,55.4,5.3,30.25,SW,223,0.0,0.0,13,0.00,CLR,FEW,0.00,482.0,WeatherDisplay:10.37,2013-01-15 21:55:00,
2013-01-15 13:58:00,55.3,6.8,30.25,SW,221,0.0,0.0,14,0.00,CLR,FEW,0.00,477.8,WeatherDisplay:10.37,2013-01-15 21:58:00,
2013-01-15 13:59:00,55.4,8.4,30.25,SW,221,0.3,0.0,15,0.00,CLR,FEW,0.00,476.7,WeatherDisplay:10.37,2013-01-15 21:59:00,
2013-01-15 14:00:00,55.4,6.9,30.25,SW,221,0.0,1.1,14,0.00,CLR,FEW,0.00,472.5,WeatherDisplay:10.37,2013-01-15 22:00:00,
2013-01-15 14:04:00,56.0,7.4,30.25,SW,221,0.1,1.1,14,0.00,CLR,FEW,0.00,467.3,WeatherDisplay:10.37,2013-01-15 22:04:00,
2013-01-15 14:05:00,56.0,7.4,30.25,SW,221,0.0,0.0,14,0.00,CLR,FEW,0.00,465.2,WeatherDisplay:10.37,2013-01-15 22:05:00,
2013-01-15 14:10:00,55.6,7.1,30.25,SW,221,0.0,0.0,14,0.00,CLR,FEW,0.00,459.9,WeatherDisplay:10.37,2013-01-15 22:10:00,
2013-01-15 14:12:00,55.4,6.9,30.25,SW,221,0.0,0.0,14,0.00,CLR,FEW,0.00,452.6,WeatherDisplay:10.37,2013-01-15 22:12:00,
2013-01-15 14:14:00,55.8,7.2,30.25,SW,221,0.0,0.0,14,0.00,CLR,FEW,0.00,448.4,WeatherDisplay:10.37,2013-01-15 22:14:00,
2013-01-15 14:15:00,56.0,10.4,30.25,SW,221,0.0,1.1,16,0.00,CLR,FEW,0.00,441.0,WeatherDisplay:10.37,2013-01-15 22:15:00,
2013-01-15 14:16:00,56.2,7.5,30.25,SW,221,0.0,0.0,14,0.00,CLR,FEW,0.00,443.1,WeatherDisplay:10.37,2013-01-15 22:16:00,
2013-01-15 14:17:00,56.3,9.2,30.25,WSW,252,0.0,0.0,15,0.00,CLR,FEW,0.00,443.1,WeatherDisplay:10.37,2013-01-15 22:17:00,
2013-01-15 14:20:00,56.3,6.0,30.25,WSW,237,0.0,2.3,13,0.00,CLR,FEW,0.00,421.1,WeatherDisplay:10.37,2013-01-15 22:20:00,
2013-01-15 14:22:00,56.0,7.4,30.25,WSW,237,0.0,0.0,14,0.00,CLR,FEW,0.00,426.3,WeatherDisplay:10.37,2013-01-15 22:22:00,
2013-01-15 14:24:00,56.2,5.9,30.25,WSW,237,0.0,0.0,13,0.00,CLR,FEW,0.00,394.8,WeatherDisplay:10.37,2013-01-15 22:24:00,
2013-01-15 14:26:00,56.2,5.9,30.25,SW,236,0.0,0.0,13,0.00,CLR,FEW,0.00,391.7,WeatherDisplay:10.37,2013-01-15 22:26:00,
2013-01-15 14:27:00,56.3,7.6,30.25,SW,236,0.1,1.1,14,0.00,CLR,FEW,0.00,416.9,WeatherDisplay:10.37,2013-01-15 22:27:00,
2013-01-15 14:29:00,56.3,7.6,30.25,WSW,237,0.0,0.0,14,0.00,CLR,FEW,0.00,411.6,WeatherDisplay:10.37,2013-01-15 22:29:00,
2013-01-15 14:31:00,56.5,7.8,30.25,SW,235,0.0,0.0,14,0.00,CLR,FEW,0.00,407.4,WeatherDisplay:10.37,2013-01-15 22:31:00,
2013-01-15 14:32:00,56.5,7.8,30.25,SW,235,0.0,0.0,14,0.00,CLR,FEW,0.00,407.4,WeatherDisplay:10.37,2013-01-15 22:32:00,
2013-01-15 14:36:00,56.5,6.2,30.25,SW,235,0.0,0.0,13,0.00,CLR,FEW,0.00,389.6,WeatherDisplay:10.37,2013-01-15 22:36:00,
2013-01-15 14:37:00,56.5,6.2,30.25,SW,235,0.0,0.0,13,0.00,CLR,FEW,0.00,392.7,WeatherDisplay:10.37,2013-01-15 22:37:00,
2013-01-15 14:41:00,56.7,7.9,30.25,SW,235,0.0,0.0,14,0.00,CLR,FEW,0.00,382.2,WeatherDisplay:10.37,2013-01-15 22:41:00,
2013-01-15 14:42:00,56.6,7.9,30.25,SW,235,0.0,0.0,14,0.00,CLR,FEW,0.00,380.1,WeatherDisplay:10.37,2013-01-15 22:42:00,
2013-01-15 14:44:00,56.7,7.9,30.25,SW,235,0.0,0.0,14,0.00,CLR,FEW,0.00,363.3,WeatherDisplay:10.37,2013-01-15 22:44:00,
2013-01-15 14:46:00,57.2,8.3,30.25,SW,235,0.0,0.0,14,0.00,CLR,FEW,0.00,356.0,WeatherDisplay:10.37,2013-01-15 22:46:00,
2013-01-15 14:47:00,57.2,8.3,30.25,SW,235,0.0,0.0,14,0.00,CLR,FEW,0.00,354.9,WeatherDisplay:10.37,2013-01-15 22:47:00,
2013-01-15 14:50:00,57.8,8.8,30.25,SW,235,0.0,0.0,14,0.00,CLR,FEW,0.00,350.7,WeatherDisplay:10.37,2013-01-15 22:50:00,
2013-01-15 14:51:00,58.0,7.3,30.25,SW,235,0.0,0.0,13,0.00,CLR,FEW,0.00,350.7,WeatherDisplay:10.37,2013-01-15 22:51:00,
2013-01-15 14:52:00,58.0,7.3,30.25,SW,235,0.0,0.0,13,0.00,CLR,FEW,0.00,338.1,WeatherDisplay:10.37,2013-01-15 22:52:00,
2013-01-15 14:53:00,58.0,7.3,30.25,SW,235,0.0,0.0,13,0.00,CLR,FEW,0.00,341.3,WeatherDisplay:10.37,2013-01-15 22:53:00,
2013-01-15 14:55:00,57.6,8.7,30.25,SW,234,0.1,2.3,14,0.00,CLR,FEW,0.00,346.5,WeatherDisplay:10.37,2013-01-15 22:55:00,
2013-01-15 14:57:00,57.6,8.7,30.25,SW,234,0.0,0.0,14,0.00,CLR,FEW,0.00,339.2,WeatherDisplay:10.37,2013-01-15 22:57:00,
2013-01-15 14:58:00,57.6,8.7,30.25,SW,234,0.0,0.0,14,0.00,CLR,FEW,0.00,336.0,WeatherDisplay:10.37,2013-01-15 22:58:00,
2013-01-15 15:00:00,57.8,8.8,30.25,SW,234,0.0,0.0,14,0.00,CLR,FEW,0.00,331.8,WeatherDisplay:10.37,2013-01-15 23:00:00,
2013-01-15 15:02:00,57.8,8.8,30.25,SW,234,0.1,1.1,14,0.00,CLR,FEW,0.00,324.5,WeatherDisplay:10.37,2013-01-15 23:02:00,
2013-01-15 15:03:00,57.8,8.8,30.25,SW,234,0.0,0.0,14,0.00,CLR,FEW,0.00,323.4,WeatherDisplay:10.37,2013-01-15 23:03:00,
2013-01-15 15:04:00,57.6,7.0,30.25,SW,234,0.0,0.0,13,0.00,CLR,FEW,0.00,319.2,WeatherDisplay:10.37,2013-01-15 23:04:00,
2013-01-15 15:05:00,57.3,8.4,30.25,SW,234,0.0,0.0,14,0.00,CLR,FEW,0.00,316.1,WeatherDisplay:10.37,2013-01-15 23:05:00,
2013-01-15 15:08:00,57.0,8.2,30.25,SW,234,0.0,0.0,14,0.00,CLR,FEW,0.00,199.5,WeatherDisplay:10.37,2013-01-15 23:08:00,
2013-01-15 15:09:00,57.0,8.2,30.25,SW,234,0.0,0.0,14,0.00,CLR,FEW,0.00,297.2,WeatherDisplay:10.37,2013-01-15 23:09:00,
2013-01-15 15:12:00,57.2,9.9,30.25,SW,234,0.0,1.1,15,0.00,CLR,FEW,0.00,301.4,WeatherDisplay:10.37,2013-01-15 23:12:00,
2013-01-15 15:13:00,57.5,10.1,30.25,WSW,238,1.2,5.8,15,0.00,CLR,FEW,0.00,295.1,WeatherDisplay:10.37,2013-01-15 23:13:00,
2013-01-15 15:14:00,57.5,10.1,30.25,WSW,238,0.0,5.8,15,0.00,CLR,FEW,0.00,295.1,WeatherDisplay:10.37,2013-01-15 23:14:00,
2013-01-15 15:18:00,57.2,8.3,30.25,WSW,237,0.0,0.0,14,0.00,CLR,FEW,0.00,278.3,WeatherDisplay:10.37,2013-01-15 23:18:00,
2013-01-15 15:19:00,57.2,8.3,30.25,SW,235,0.3,2.6,14,0.00,CLR,FEW,0.00,278.3,WeatherDisplay:10.37,2013-01-15 23:19:00,
2013-01-15 15:20:00,56.9,8.1,30.25,SW,235,0.1,2.3,14,0.00,CLR,FEW,0.00,273.0,WeatherDisplay:10.37,2013-01-15 23:20:00,
2013-01-15 15:23:00,56.6,7.9,30.25,SW,235,0.0,3.5,14,0.00,CLR,FEW,0.00,265.7,WeatherDisplay:10.37,2013-01-15 23:23:00,
2013-01-15 15:24:00,56.7,7.9,30.25,SW,235,0.0,0.0,14,0.00,CLR,FEW,0.00,262.5,WeatherDisplay:10.37,2013-01-15 23:24:00,
2013-01-15 15:25:00,56.7,7.9,30.25,SW,235,0.0,0.0,14,0.00,CLR,FEW,0.00,262.5,WeatherDisplay:10.37,2013-01-15 23:25:00,
2013-01-15 15:29:00,57.0,8.2,30.25,SW,235,0.0,0.0,14,0.00,CLR,FEW,0.00,247.8,WeatherDisplay:10.37,2013-01-15 23:29:00,
2013-01-15 15:30:00,57.0,8.2,30.25,SW,235,0.0,0.0,14,0.00,CLR,FEW,0.00,247.8,WeatherDisplay:10.37,2013-01-15 23:30:00,
2013-01-15 15:31:00,57.0,8.2,30.25,SW,235,0.0,0.0,14,0.00,CLR,FEW,0.00,245.7,WeatherDisplay:10.37,2013-01-15 23:31:00,
2013-01-15 15:34:00,57.2,9.9,30.25,SW,235,0.0,0.0,15,0.00,CLR,FEW,0.00,232.1,WeatherDisplay:10.37,2013-01-15 23:34:00,
2013-01-15 15:35:00,57.2,9.9,30.25,SW,235,0.0,0.0,15,0.00,CLR,FEW,0.00,232.1,WeatherDisplay:10.37,2013-01-15 23:35:00,
2013-01-15 15:36:00,57.2,8.3,30.25,SW,235,0.0,0.0,14,0.00,CLR,FEW,0.00,226.8,WeatherDisplay:10.37,2013-01-15 23:36:00,
2013-01-15 15:40:00,57.5,8.6,30.25,SW,235,0.0,0.0,14,0.00,CLR,FEW,0.00,217.4,WeatherDisplay:10.37,2013-01-15 23:40:00,
2013-01-15 15:43:00,57.5,8.6,30.25,SW,235,0.0,0.0,14,0.00,CLR,FEW,0.00,210.0,WeatherDisplay:10.37,2013-01-15 23:43:00,
2013-01-15 15:45:00,57.6,8.7,30.25,SW,235,0.0,0.0,14,0.00,CLR,FEW,0.00,204.8,WeatherDisplay:10.37,2013-01-15 23:45:00,
2013-01-15 15:46:00,57.5,8.6,30.25,SW,235,0.1,1.1,14,0.00,CLR,FEW,0.00,197.4,WeatherDisplay:10.37,2013-01-15 23:46:00,
2013-01-15 15:48:00,57.5,8.6,30.25,SW,235,0.0,0.0,14,0.00,CLR,FEW,0.00,194.3,WeatherDisplay:10.37,2013-01-15 23:48:00,
2013-01-15 15:50:00,57.5,8.6,30.25,SW,235,0.1,1.1,14,0.00,CLR,FEW,0.00,190.1,WeatherDisplay:10.37,2013-01-15 23:50:00,
2013-01-15 15:52:00,57.8,8.8,30.25,SW,235,0.0,0.0,14,0.00,CLR,FEW,0.00,182.7,WeatherDisplay:10.37,2013-01-15 23:52:00,
2013-01-15 15:54:00,58.1,9.1,30.25,SW,235,0.0,0.0,14,0.00,CLR,FEW,0.00,177.5,WeatherDisplay:10.37,2013-01-15 23:54:00,
2013-01-15 15:55:00,58.1,9.1,30.25,SW,235,0.0,0.0,14,0.00,CLR,FEW,0.00,175.3,WeatherDisplay:10.37,2013-01-15 23:55:00,
2013-01-15 15:58:00,58.4,9.3,30.25,SW,235,0.0,0.0,14,0.00,CLR,FEW,0.00,165.9,WeatherDisplay:10.37,2013-01-15 23:58:00,
2013-01-15 15:59:00,58.6,9.5,30.25,SW,235,0.0,0.0,14,0.00,CLR,FEW,0.00,162.8,WeatherDisplay:10.37,2013-01-15 23:59:00,
2013-01-15 16:00:00,58.6,11.0,30.25,SW,235,0.0,0.0,15,0.00,CLR,FEW,0.00,160.7,WeatherDisplay:10.37,2013-01-16 00:00:00,
2013-01-15 16:04:00,58.3,9.2,30.25,SW,235,0.0,0.0,14,0.00,CLR,FEW,0.00,148.1,WeatherDisplay:10.37,2013-01-16 00:04:00,
2013-01-15 16:05:00,58.3,9.2,30.25,SW,235,0.0,0.0,14,0.00,CLR,FEW,0.00,146.0,WeatherDisplay:10.37,2013-01-16 00:05:00,
2013-01-15 16:07:00,58.3,10.8,30.25,SW,235,0.0,0.0,15,0.00,CLR,FEW,0.00,138.6,WeatherDisplay:10.37,2013-01-16 00:07:00,
2013-01-15 16:09:00,58.3,9.2,30.25,SW,235,0.0,0.0,14,0.00,CLR,FEW,0.00,134.4,WeatherDisplay:10.37,2013-01-16 00:09:00,
2013-01-15 16:11:00,58.1,10.6,30.25,SW,235,0.0,0.0,15,0.00,CLR,FEW,0.00,127.1,WeatherDisplay:10.37,2013-01-16 00:11:00,
2013-01-15 16:12:00,58.0,10.5,30.25,SW,235,0.0,0.0,15,0.00,CLR,FEW,0.00,126.0,WeatherDisplay:10.37,2013-01-16 00:12:00,
2013-01-15 16:14:00,58.0,9.0,30.25,SW,235,0.0,0.0,14,0.00,CLR,FEW,0.00,119.7,WeatherDisplay:10.37,2013-01-16 00:14:00,
2013-01-15 16:17:00,57.8,10.4,30.25,SW,235,0.0,0.0,15,0.00,CLR,FEW,0.00,114.5,WeatherDisplay:10.37,2013-01-16 00:17:00,
2013-01-15 16:19:00,57.6,10.2,30.25,SW,235,0.0,0.0,15,0.00,CLR,FEW,0.00,107.1,WeatherDisplay:10.37,2013-01-16 00:19:00,
2013-01-15 16:22:00,57.3,11.4,30.25,SW,235,0.0,0.0,16,0.00,CLR,FEW,0.00,99.8,WeatherDisplay:10.37,2013-01-16 00:22:00,
2013-01-15 16:24:00,57.3,10.0,30.25,SW,235,0.0,0.0,15,0.00,CLR,FEW,0.00,90.3,WeatherDisplay:10.37,2013-01-16 00:24:00,
2013-01-15 16:27:00,57.3,11.4,30.25,SW,235,0.0,0.0,16,0.00,CLR,FEW,0.00,83.0,WeatherDisplay:10.37,2013-01-16 00:27:00,
2013-01-15 16:29:00,57.3,10.0,30.26,SW,235,0.0,0.0,15,0.00,CLR,FEW,0.00,75.6,WeatherDisplay:10.37,2013-01-16 00:29:00,
2013-01-15 16:32:00,57.3,12.8,30.26,SW,235,0.0,0.0,17,0.00,CLR,FEW,0.00,68.3,WeatherDisplay:10.37,2013-01-16 00:32:00,
2013-01-15 16:34:00,57.2,11.3,30.26,SW,235,0.0,0.0,16,0.00,CLR,FEW,0.00,63.0,WeatherDisplay:10.37,2013-01-16 00:34:00,
2013-01-15 16:35:00,57.0,13.8,30.26,SW,235,0.0,0.0,18,0.00,CLR,FEW,0.00,60.9,WeatherDisplay:10.37,2013-01-16 00:35:00,
2013-01-15 16:37:00,57.0,11.2,30.26,SW,235,0.0,0.0,16,0.00,CLR,FEW,0.00,51.5,WeatherDisplay:10.37,2013-01-16 00:37:00,
2013-01-15 16:38:00,57.0,11.2,30.26,SW,235,0.0,0.0,16,0.00,CLR,FEW,0.00,46.2,WeatherDisplay:10.37,2013-01-16 00:38:00,
2013-01-15 16:39:00,57.0,11.2,30.26,SW,235,0.0,0.0,16,0.00,CLR,FEW,0.00,44.1,WeatherDisplay:10.37,2013-01-16 00:39:00,
2013-01-15 16:40:00,57.0,9.7,30.26,SW,235,0.0,0.0,15,0.00,CLR,FEW,0.00,44.1,WeatherDisplay:10.37,2013-01-16 00:40:00,
2013-01-15 16:42:00,56.9,11.1,30.26,SW,235,0.0,0.0,16,0.00,CLR,FEW,0.00,41.0,WeatherDisplay:10.37,2013-01-16 00:42:00,
2013-01-15 16:43:00,56.9,11.1,30.26,SW,235,0.0,0.0,16,0.00,CLR,FEW,0.00,36.8,WeatherDisplay:10.37,2013-01-16 00:43:00,
2013-01-15 16:44:00,56.9,11.1,30.26,SW,235,0.0,0.0,16,0.00,CLR,FEW,0.00,36.8,WeatherDisplay:10.37,2013-01-16 00:44:00,
2013-01-15 16:45:00,56.9,12.5,30.26,SW,235,0.0,0.0,17,0.00,CLR,FEW,0.00,33.6,WeatherDisplay:10.37,2013-01-16 00:45:00,
2013-01-15 16:48:00,56.7,16.0,30.26,SW,235,0.0,0.0,20,0.00,CLR,FEW,0.00,29.4,WeatherDisplay:10.37,2013-01-16 00:48:00,
2013-01-15 16:49:00,56.6,15.9,30.26,SW,235,0.0,0.0,20,0.00,FEW,,0.00,20.0,WeatherDisplay:10.37,2013-01-16 00:49:00,
2013-01-15 16:52:00,56.0,15.4,30.26,SW,235,0.0,0.0,20,0.00,CLR,FEW,0.00,18.9,WeatherDisplay:10.37,2013-01-16 00:52:00,
2013-01-15 16:53:00,55.9,15.3,30.26,SW,235,0.0,0.0,20,0.00,CLR,FEW,0.00,16.8,WeatherDisplay:10.37,2013-01-16 00:53:00,
2013-01-15 16:55:00,55.6,16.2,30.26,SW,235,0.0,0.0,21,0.00,CLR,FEW,0.00,14.7,WeatherDisplay:10.37,2013-01-16 00:55:00,
2013-01-15 16:58:00,54.8,16.6,30.26,SW,235,0.0,0.0,22,0.00,CLR,FEW,0.00,7.4,WeatherDisplay:10.37,2013-01-16 00:58:00,
2013-01-15 16:59:00,54.7,16.5,30.26,SW,235,0.0,0.0,22,0.00,CLR,FEW,0.00,7.4,WeatherDisplay:10.37,2013-01-16 00:59:00,
2013-01-15 17:02:00,54.1,18.1,30.27,SW,235,0.0,0.0,24,0.00,OVC,FEW,0.00,5.3,WeatherDisplay:10.37,2013-01-16 01:02:00,
2013-01-15 17:03:00,53.8,15.8,30.27,SW,235,0.0,0.0,22,0.00,OVC,FEW,0.00,0.0,WeatherDisplay:10.37,2013-01-16 01:03:00,
2013-01-15 17:04:00,53.6,14.5,30.27,SW,235,0.0,0.0,21,0.00,OVC,FEW,0.00,0.0,WeatherDisplay:10.37,2013-01-16 01:04:00,
2013-01-15 17:07:00,53.3,14.3,30.27,SW,235,0.0,0.0,21,0.00,OVC,FEW,0.00,0.0,WeatherDisplay:10.37,2013-01-16 01:07:00,
2013-01-15 17:08:00,53.1,13.0,30.27,SW,235,0.0,0.0,20,0.00,OVC,FEW,0.00,0.0,WeatherDisplay:10.37,2013-01-16 01:08:00,
2013-01-15 17:09:00,52.9,12.9,30.27,SW,235,0.0,0.0,20,0.00,OVC,FEW,0.00,0.0,WeatherDisplay:10.37,2013-01-16 01:09:00,
2013-01-15 17:10:00,52.9,14.0,30.27,SW,235,0.0,0.0,21,0.00,OVC,FEW,0.00,0.0,WeatherDisplay:10.37,2013-01-16 01:10:00,
2013-01-15 17:12:00,52.8,13.9,30.27,SW,235,0.0,0.0,21,0.00,OVC,FEW,0.00,0.0,WeatherDisplay:10.37,2013-01-16 01:12:00,
2013-01-15 17:13:00,52.6,11.4,30.27,SW,235,0.0,0.0,19,0.00,OVC,FEW,0.00,0.0,WeatherDisplay:10.37,2013-01-16 01:13:00,
2013-01-15 17:14:00,52.5,12.5,30.27,SW,235,0.0,0.0,20,0.00,OVC,FEW,0.00,0.0,WeatherDisplay:10.37,2013-01-16 01:14:00,
2013-01-15 17:15:00,52.5,12.5,30.27,SW,235,0.0,0.0,20,0.00,OVC,FEW,0.00,0.0,WeatherDisplay:10.37,2013-01-16 01:15:00,
2013-01-15 17:17:00,52.2,13.4,30.27,SW,235,0.0,0.0,21,0.00,OVC,FEW,0.00,0.0,WeatherDisplay:10.37,2013-01-16 01:17:00,
2013-01-15 17:18:00,51.7,14.0,30.27,SW,235,0.0,0.0,22,0.00,OVC,FEW,0.00,0.0,WeatherDisplay:10.37,2013-01-16 01:18:00,
2013-01-15 17:19:00,51.6,13.9,30.27,SW,235,0.0,0.0,22,0.00,OVC,FEW,0.00,0.0,WeatherDisplay:10.37,2013-01-16 01:19:00,
2013-01-15 17:20:00,51.4,12.7,30.27,SW,235,0.0,0.0,21,0.00,OVC,FEW,0.00,0.0,WeatherDisplay:10.37,2013-01-16 01:20:00,
2013-01-15 17:22:00,51.1,11.4,30.27,SW,235,0.0,0.0,20,0.00,OVC,FEW,0.00,0.0,WeatherDisplay:10.37,2013-01-16 01:22:00,
2013-01-15 17:25:00,50.7,12.1,30.27,SW,235,0.0,0.0,21,0.00,OVC,FEW,0.00,0.0,WeatherDisplay:10.37,2013-01-16 01:25:00,
2013-01-15 17:26:00,50.4,11.9,30.27,East,80,0.1,1.1,21,0.00,OVC,FEW,0.00,0.0,WeatherDisplay:10.37,2013-01-16 01:26:00,
2013-01-15 17:27:00,50.4,11.9,30.27,East,81,0.0,0.0,21,0.00,OVC,FEW,0.00,0.0,WeatherDisplay:10.37,2013-01-16 01:27:00,
2013-01-15 17:30:00,49.5,15.1,30.27,East,81,0.0,0.0,25,0.00,OVC,FEW,0.00,0.0,WeatherDisplay:10.37,2013-01-16 01:30:00,
2013-01-15 17:32:00,48.6,13.4,30.27,East,82,0.0,0.0,24,0.00,OVC,FEW,0.00,0.0,WeatherDisplay:10.37,2013-01-16 01:32:00,
2013-01-15 17:33:00,48.5,13.3,30.27,East,82,0.0,0.0,24,0.00,CLR,FEW,0.00,0.0,WeatherDisplay:10.37,2013-01-16 01:33:00,
2013-01-15 17:35:00,47.7,14.4,30.27,East,82,0.0,0.0,26,0.00,CLR,FEW,0.00,0.0,WeatherDisplay:10.37,2013-01-16 01:35:00,
2013-01-15 17:37:00,47.3,13.2,30.27,East,82,0.0,0.0,25,0.00,CLR,FEW,0.00,0.0,WeatherDisplay:10.37,2013-01-16 01:37:00,
2013-01-15 17:38:00,47.0,12.9,30.27,East,82,0.0,0.0,25,0.00,CLR,FEW,0.00,0.0,WeatherDisplay:10.37,2013-01-16 01:38:00,
2013-01-15 17:40:00,46.7,12.7,30.27,East,82,0.0,0.0,25,0.00,CLR,FEW,0.00,0.0,WeatherDisplay:10.37,2013-01-16 01:40:00,
2013-01-15 17:41:00,46.7,12.7,30.27,East,82,0.0,0.0,25,0.00,CLR,FEW,0.00,0.0,WeatherDisplay:10.37,2013-01-16 01:41:00,
2013-01-15 17:42:00,46.5,13.4,30.27,East,82,0.0,0.0,26,0.00,CLR,FEW,0.00,0.0,WeatherDisplay:10.37,2013-01-16 01:42:00,
2013-01-15 17:43:00,46.2,14.8,30.27,East,82,0.0,0.0,28,0.00,CLR,FEW,0.00,0.0,WeatherDisplay:10.37,2013-01-16 01:43:00,
2013-01-15 17:46:00,45.7,12.7,30.27,East,82,0.0,0.0,26,0.00,CLR,FEW,0.00,0.0,WeatherDisplay:10.37,2013-01-16 01:46:00,
2013-01-15 17:47:00,45.7,12.7,30.27,East,82,0.0,0.0,26,0.00,CLR,FEW,0.00,0.0,WeatherDisplay:10.37,2013-01-16 01:47:00,
2013-01-15 17:49:00,45.7,11.8,30.27,East,82,0.0,0.0,25,0.00,CLR,FEW,0.00,0.0,WeatherDisplay:10.37,2013-01-16 01:49:00,
2013-01-15 17:51:00,46.0,13.0,30.27,East,82,0.0,0.0,26,0.00,CLR,FEW,0.00,0.0,WeatherDisplay:10.37,2013-01-16 01:51:00,
2013-01-15 17:52:00,46.0,13.8,30.27,East,82,0.0,0.0,27,0.00,CLR,FEW,0.00,0.0,WeatherDisplay:10.37,2013-01-16 01:52:00,
2013-01-15 17:53:00,46.0,13.8,30.27,East,81,0.0,0.0,27,0.00,CLR,FEW,0.00,0.0,WeatherDisplay:10.37,2013-01-16 01:53:00,
2013-01-15 17:54:00,46.0,13.8,30.27,East,81,0.0,0.0,27,0.00,CLR,FEW,0.00,0.0,WeatherDisplay:10.37,2013-01-16 01:54:00,
2013-01-15 17:57:00,45.8,14.5,30.27,East,81,0.0,0.0,28,0.00,CLR,FEW,0.00,0.0,WeatherDisplay:10.37,2013-01-16 01:57:00,
2013-01-15 17:59:00,45.4,14.1,30.27,East,81,0.0,0.0,28,0.00,CLR,FEW,0.00,0.0,WeatherDisplay:10.37,2013-01-16 01:59:00,
2013-01-15 18:00:00,45.4,13.3,30.28,East,82,0.0,0.0,27,0.00,CLR,FEW,0.00,0.0,WeatherDisplay:10.37,2013-01-16 02:00:00,
2013-01-15 18:02:00,45.4,13.3,30.28,East,81,0.0,0.0,27,0.00,CLR,FEW,0.00,0.0,WeatherDisplay:10.37,2013-01-16 02:02:00,
2013-01-15 18:03:00,45.4,12.5,30.28,East,82,0.0,0.0,26,0.00,CLR,FEW,0.00,0.0,WeatherDisplay:10.37,2013-01-16 02:03:00,
2013-01-15 18:04:00,45.4,11.6,30.28,East,82,0.0,0.0,25,0.00,CLR,FEW,0.00,0.0,WeatherDisplay:10.37,2013-01-16 02:04:00,
2013-01-15 18:05:00,45.7,10.9,30.28,NE,47,0.0,0.0,24,0.00,CLR,FEW,0.00,0.0,WeatherDisplay:10.37,2013-01-16 02:05:00,
2013-01-15 18:07:00,46.0,12.1,30.28,ENE,75,0.0,0.0,25,0.00,CLR,FEW,0.00,0.0,WeatherDisplay:10.37,2013-01-16 02:07:00,
2013-01-15 18:08:00,46.1,12.2,30.28,ENE,75,0.0,0.0,25,0.00,CLR,FEW,0.00,0.0,WeatherDisplay:10.37,2013-01-16 02:08:00,
2013-01-15 18:09:00,46.1,12.2,30.28,ENE,75,0.0,0.0,25,0.00,CLR,FEW,0.00,0.0,WeatherDisplay:10.37,2013-01-16 02:09:00,
2013-01-15 18:12:00,46.4,12.4,30.28,ENE,75,0.0,0.0,25,0.00,CLR,FEW,0.00,0.0,WeatherDisplay:10.37,2013-01-16 02:12:00,
2013-01-15 18:14:00,46.5,12.5,30.28,East,86,0.3,2.3,25,0.00,CLR,FEW,0.00,0.0,WeatherDisplay:10.37,2013-01-16 02:14:00,
2013-01-15 18:16:00,46.5,12.5,30.28,East,87,0.0,0.0,25,0.00,CLR,FEW,0.00,0.0,WeatherDisplay:10.37,2013-01-16 02:16:00,
2013-01-15 18:17:00,46.4,11.5,30.28,East,87,0.0,0.0,24,0.00,CLR,FEW,0.00,0.0,WeatherDisplay:10.37,2013-01-16 02:17:00,
2013-01-15 18:19:00,46.2,12.3,30.28,East,79,0.0,0.0,25,0.00,CLR,FEW,0.00,0.0,WeatherDisplay:10.37,2013-01-16 02:19:00,
2013-01-15 18:20:00,46.2,12.3,30.28,NE,49,0.0,0.0,25,0.00,CLR,FEW,0.00,0.0,WeatherDisplay:10.37,2013-01-16 02:20:00,
2013-01-15 18:21:00,46.2,11.3,30.28,NE,49,0.0,0.0,24,0.00,CLR,FEW,0.00,0.0,WeatherDisplay:10.37,2013-01-16 02:21:00,
2013-01-15 18:23:00,46.2,11.3,30.28,NE,49,0.0,0.0,24,0.00,CLR,FEW,0.00,0.0,WeatherDisplay:10.37,2013-01-16 02:23:00,
2013-01-15 18:25:00,46.7,12.7,30.28,ESE,106,0.0,0.0,25,0.00,CLR,FEW,0.00,0.0,WeatherDisplay:10.37,2013-01-16 02:25:00,
2013-01-15 18:26:00,46.7,12.7,30.28,ESE,106,0.0,0.0,25,0.00,CLR,FEW,0.00,0.0,WeatherDisplay:10.37,2013-01-16 02:26:00,
2013-01-15 18:28:00,46.7,12.7,30.28,ESE,106,0.0,0.0,25,0.00,CLR,FEW,0.00,0.0,WeatherDisplay:10.37,2013-01-16 02:28:00,
2013-01-15 18:31:00,46.8,12.8,30.29,ESE,106,0.0,0.0,25,0.00,CLR,FEW,0.00,0.0,WeatherDisplay:10.37,2013-01-16 02:31:00,
2013-01-15 18:32:00,46.8,12.8,30.29,ESE,105,0.0,0.0,25,0.00,CLR,FEW,0.00,0.0,WeatherDisplay:10.37,2013-01-16 02:32:00,
2013-01-15 18:33:00,46.8,12.8,30.29,ESE,105,0.0,0.0,25,0.00,CLR,FEW,0.00,0.0,WeatherDisplay:10.37,2013-01-16 02:33:00,
2013-01-15 18:36:00,47.0,12.0,30.29,ESE,105,0.0,0.0,24,0.00,CLR,FEW,0.00,0.0,WeatherDisplay:10.37,2013-01-16 02:36:00,
2013-01-15 18:38:00,46.8,12.8,30.29,ESE,105,0.0,0.0,25,0.00,CLR,FEW,0.00,0.0,WeatherDisplay:10.37,2013-01-16 02:38:00,
2013-01-15 18:41:00,46.0,12.1,30.29,ESE,105,0.0,0.0,25,0.00,CLR,FEW,0.00,0.0,WeatherDisplay:10.37,2013-01-16 02:41:00,
2013-01-15 18:43:00,45.8,11.9,30.29,ESE,105,0.0,0.0,25,0.00,CLR,FEW,0.00,0.0,WeatherDisplay:10.37,2013-01-16 02:43:00,
2013-01-15 18:44:00,45.7,11.8,30.29,ESE,105,0.0,0.0,25,0.00,CLR,FEW,0.00,0.0,WeatherDisplay:10.37,2013-01-16 02:44:00,
2013-01-15 18:47:00,45.4,13.3,30.30,ENE,65,0.0,0.0,27,0.00,CLR,FEW,0.00,0.0,WeatherDisplay:10.37,2013-01-16 02:47:00,
2013-01-15 18:49:00,45.4,13.3,30.30,ENE,65,0.0,0.0,27,0.00,CLR,FEW,0.00,0.0,WeatherDisplay:10.37,2013-01-16 02:49:00,
2013-01-15 18:53:00,45.4,14.1,30.30,ENE,64,0.0,0.0,28,0.00,CLR,FEW,0.00,0.0,WeatherDisplay:10.37,2013-01-16 02:53:00,
2013-01-15 18:54:00,45.4,14.1,30.30,ENE,64,0.0,0.0,28,0.00,CLR,FEW,0.00,0.0,WeatherDisplay:10.37,2013-01-16 02:54:00,
2013-01-15 18:56:00,45.1,14.7,30.30,ENE,65,0.0,0.0,29,0.00,CLR,FEW,0.00,0.0,WeatherDisplay:10.37,2013-01-16 02:56:00,
2013-01-15 18:58:00,44.6,14.3,30.30,ENE,65,0.0,0.0,29,0.00,CLR,FEW,0.00,0.0,WeatherDisplay:10.37,2013-01-16 02:58:00,
2013-01-15 18:59:00,44.6,15.0,30.29,ENE,65,0.0,0.0,30,0.00,CLR,FEW,0.00,0.0,WeatherDisplay:10.37,2013-01-16 02:59:00,
2013-01-15 19:00:00,44.6,15.0,30.29,ENE,65,0.0,0.0,30,0.00,CLR,FEW,0.00,0.0,WeatherDisplay:10.37,2013-01-16 03:00:00,
2013-01-15 19:02:00,44.5,14.2,30.29,ENE,65,0.0,0.0,29,0.00,CLR,FEW,0.00,0.0,WeatherDisplay:10.37,2013-01-16 03:02:00,
2013-01-15 19:04:00,44.5,14.2,30.29,ENE,65,0.0,0.0,29,0.00,CLR,FEW,0.00,0.0,WeatherDisplay:10.37,2013-01-16 03:04:00,
2013-01-15 19:07:00,44.8,13.6,30.29,East,94,0.0,0.0,28,0.00,CLR,FEW,0.00,0.0,WeatherDisplay:10.37,2013-01-16 03:07:00,
2013-01-15 19:08:00,44.8,13.6,30.29,East,84,0.0,0.0,28,0.00,CLR,FEW,0.00,0.0,WeatherDisplay:10.37,2013-01-16 03:08:00,
2013-01-15 19:09:00,44.9,13.7,30.29,East,99,3.7,6.9,28,0.00,CLR,FEW,0.00,0.0,WeatherDisplay:10.37,2013-01-16 03:09:00,
2013-01-15 19:11:00,45.1,13.9,30.29,East,96,3.0,6.9,28,0.00,CLR,FEW,0.00,0.0,WeatherDisplay:10.37,2013-01-16 03:11:00,
2013-01-15 19:12:00,45.2,14.0,30.29,ESE,103,1.2,2.3,28,0.00,CLR,FEW,0.00,0.0,WeatherDisplay:10.37,2013-01-16 03:12:00,
2013-01-15 19:13:00,45.2,14.0,30.29,ESE,103,0.0,3.5,28,0.00,CLR,FEW,0.00,0.0,WeatherDisplay:10.37,2013-01-16 03:13:00,
2013-01-15 19:14:00,45.2,14.0,30.29,East,98,1.7,6.9,28,0.00,CLR,FEW,0.00,0.0,WeatherDisplay:10.37,2013-01-16 03:14:00,
2013-01-15 19:16:00,45.1,13.9,30.29,ESE,106,0.9,3.5,28,0.00,CLR,FEW,0.00,0.0,WeatherDisplay:10.37,2013-01-16 03:16:00,
2013-01-15 19:19:00,44.8,13.6,30.29,ESE,115,0.0,0.0,28,0.00,CLR,FEW,0.00,0.0,WeatherDisplay:10.37,2013-01-16 03:19:00,
2013-01-15 19:21:00,44.5,14.2,30.29,ESE,115,0.0,0.0,29,0.00,CLR,FEW,0.00,0.0,WeatherDisplay:10.37,2013-01-16 03:21:00,
2013-01-15 19:24:00,44.2,13.9,30.29,ESE,115,0.0,0.0,29,0.00,CLR,FEW,0.00,0.0,WeatherDisplay:10.37,2013-01-16 03:24:00,
2013-01-15 19:26:00,44.2,13.9,30.29,ESE,115,0.0,0.0,29,0.00,CLR,FEW,0.00,0.0,WeatherDisplay:10.37,2013-01-16 03:26:00,
2013-01-15 19:29:00,44.2,13.1,30.30,East,90,0.0,0.0,28,0.00,CLR,FEW,0.00,0.0,WeatherDisplay:10.37,2013-01-16 03:29:00,
2013-01-15 19:30:00,44.2,13.1,30.30,ENE,68,0.0,0.0,28,0.00,CLR,FEW,0.00,0.0,WeatherDisplay:10.37,2013-01-16 03:30:00,
2013-01-15 19:31:00,44.2,13.1,30.30,NE,44,0.0,0.0,28,0.00,CLR,FEW,0.00,0.0,WeatherDisplay:10.37,2013-01-16 03:31:00,
2013-01-15 19:34:00,44.2,13.9,30.30,NNE,28,0.0,0.0,29,0.00,CLR,FEW,0.00,0.0,WeatherDisplay:10.37,2013-01-16 03:34:00,
2013-01-15 19:36:00,44.2,13.9,30.30,NNE,29,0.0,0.0,29,0.00,CLR,FEW,0.00,0.0,WeatherDisplay:10.37,2013-01-16 03:36:00,
2013-01-15 19:40:00,44.2,13.9,30.30,NNE,15,0.0,0.0,29,0.00,CLR,FEW,0.00,0.0,WeatherDisplay:10.37,2013-01-16 03:40:00,
2013-01-15 19:41:00,44.2,13.9,30.30,NNE,16,0.0,0.0,29,0.00,CLR,FEW,0.00,0.0,WeatherDisplay:10.37,2013-01-16 03:41:00,
2013-01-15 19:43:00,44.2,13.9,30.30,NNE,17,0.0,0.0,29,0.00,CLR,FEW,0.00,0.0,WeatherDisplay:10.37,2013-01-16 03:43:00,
2013-01-15 19:46:00,44.1,13.8,30.30,NNE,17,0.0,0.0,29,0.00,CLR,FEW,0.00,0.0,WeatherDisplay:10.37,2013-01-16 03:46:00,
2013-01-15 19:47:00,44.1,13.8,30.30,NNE,17,0.0,0.0,29,0.00,CLR,FEW,0.00,0.0,WeatherDisplay:10.37,2013-01-16 03:47:00,
2013-01-15 19:49:00,43.9,13.6,30.30,NNE,17,0.0,0.0,29,0.00,CLR,FEW,0.00,0.0,WeatherDisplay:10.37,2013-01-16 03:49:00,
2013-01-15 19:52:00,43.9,14.4,30.30,NNE,17,0.0,0.0,30,0.00,CLR,FEW,0.00,0.0,WeatherDisplay:10.37,2013-01-16 03:52:00,
2013-01-15 19:53:00,43.8,15.1,30.30,NNE,17,0.0,0.0,31,0.00,CLR,FEW,0.00,0.0,WeatherDisplay:10.37,2013-01-16 03:53:00,
2013-01-15 19:54:00,43.8,15.1,30.30,NNE,17,0.0,0.0,31,0.00,CLR,FEW,0.00,0.0,WeatherDisplay:10.37,2013-01-16 03:54:00,
2013-01-15 19:56:00,43.6,14.9,30.30,NNE,17,0.0,0.0,31,0.00,CLR,FEW,0.00,0.0,WeatherDisplay:10.37,2013-01-16 03:56:00,
2013-01-15 19:58:00,43.5,15.5,30.30,NNE,17,0.0,0.0,32,0.00,CLR,FEW,0.00,0.0,WeatherDisplay:10.37,2013-01-16 03:58:00,
2013-01-15 19:59:00,43.5,15.5,30.30,NNE,17,0.0,0.0,32,0.00,CLR,FEW,0.00,0.0,WeatherDisplay:10.37,2013-01-16 03:59:00,
2013-01-15 20:00:00,43.5,15.5,30.30,NNE,17,0.0,0.0,32,0.00,CLR,FEW,0.00,0.0,WeatherDisplay:10.37,2013-01-16 04:00:00,
2013-01-15 20:01:00,43.5,14.8,30.30,NNE,17,0.0,0.0,31,0.00,CLR,FEW,0.00,0.0,WeatherDisplay:10.37,2013-01-16 04:01:00,
2013-01-15 20:04:00,43.3,14.6,30.30,NNE,17,0.0,0.0,31,0.00,CLR,FEW,0.00,0.0,WeatherDisplay:10.37,2013-01-16 04:04:00,
2013-01-15 20:05:00,43.2,14.6,30.30,NNE,17,0.0,0.0,31,0.00,CLR,FEW,0.00,0.0,WeatherDisplay:10.37,2013-01-16 04:05:00,
2013-01-15 20:06:00,43.2,14.6,30.30,NNE,17,0.0,0.0,31,0.00,CLR,FEW,0.00,0.0,WeatherDisplay:10.37,2013-01-16 04:06:00,
2013-01-15 20:09:00,42.9,14.3,30.30,NNE,17,0.0,0.0,31,0.00,CLR,FEW,0.00,0.0,WeatherDisplay:10.37,2013-01-16 04:09:00,
2013-01-15 20:11:00,42.9,14.3,30.30,NNE,17,0.0,0.0,31,0.00,CLR,FEW,0.00,0.0,WeatherDisplay:10.37,2013-01-16 04:11:00,
2013-01-15 20:13:00,43.1,14.5,30.30,NNE,17,0.0,0.0,31,0.00,CLR,FEW,0.00,0.0,WeatherDisplay:10.37,2013-01-16 04:13:00,
2013-01-15 20:14:00,43.1,13.7,30.30,NNE,17,0.0,0.0,30,0.00,CLR,FEW,0.00,0.0,WeatherDisplay:10.37,2013-01-16 04:14:00,
2013-01-15 20:16:00,43.2,13.8,30.30,NNE,17,0.0,0.0,30,0.00,CLR,FEW,0.00,0.0,WeatherDisplay:10.37,2013-01-16 04:16:00,
2013-01-15 20:18:00,43.1,15.2,30.30,NNE,17,0.0,0.0,32,0.00,CLR,FEW,0.00,0.0,WeatherDisplay:10.37,2013-01-16 04:18:00,
2013-01-15 20:21:00,42.8,14.9,30.30,NNE,17,0.0,0.0,32,0.00,CLR,FEW,0.00,0.0,WeatherDisplay:10.37,2013-01-16 04:21:00,
2013-01-15 20:22:00,42.5,14.7,30.30,NNE,17,0.0,0.0,32,0.00,CLR,FEW,0.00,0.0,WeatherDisplay:10.37,2013-01-16 04:22:00,
2013-01-15 20:23:00,42.3,14.5,30.30,NNE,17,0.0,0.0,32,0.00,CLR,FEW,0.00,0.0,WeatherDisplay:10.37,2013-01-16 04:23:00,
2013-01-15 20:26:00,42.5,13.9,30.30,NNE,17,0.0,0.0,31,0.00,CLR,FEW,0.00,0.0,WeatherDisplay:10.37,2013-01-16 04:26:00,
2013-01-15 20:28:00,42.6,14.8,30.30,NNE,17,0.0,0.0,32,0.00,CLR,FEW,0.00,0.0,WeatherDisplay:10.37,2013-01-16 04:28:00,
2013-01-15 20:29:00,42.8,14.2,30.30,NNE,17,0.0,0.0,31,0.00,CLR,FEW,0.00,0.0,WeatherDisplay:10.37,2013-01-16 04:29:00,
2013-01-15 20:32:00,43.1,13.7,30.29,NNE,17,0.0,0.0,30,0.00,CLR,FEW,0.00,0.0,WeatherDisplay:10.37,2013-01-16 04:32:00,
2013-01-15 20:33:00,43.1,13.7,30.29,NNE,17,0.0,0.0,30,0.00,CLR,FEW,0.00,0.0,WeatherDisplay:10.37,2013-01-16 04:33:00,
2013-01-15 20:34:00,43.2,13.8,30.29,NNE,17,0.0,0.0,30,0.00,CLR,FEW,0.00,0.0,WeatherDisplay:10.37,2013-01-16 04:34:00,
2013-01-15 20:35:00,43.3,13.9,30.29,East,90,0.1,1.3,30,0.00,CLR,FEW,0.00,0.0,WeatherDisplay:10.37,2013-01-16 04:35:00,
2013-01-15 20:38:00,42.9,15.0,30.29,East,91,0.0,0.0,32,0.00,CLR,FEW,0.00,0.0,WeatherDisplay:10.37,2013-01-16 04:38:00,
2013-01-15 20:39:00,42.9,15.0,30.29,East,91,0.0,0.0,32,0.00,CLR,FEW,0.00,0.0,WeatherDisplay:10.37,2013-01-16 04:39:00,
2013-01-15 20:40:00,42.6,14.8,30.29,East,91,0.0,0.0,32,0.00,CLR,FEW,0.00,0.0,WeatherDisplay:10.37,2013-01-16 04:40:00,
2013-01-15 20:43:00,42.5,14.7,30.29,East,90,0.0,0.0,32,0.00,CLR,FEW,0.00,0.0,WeatherDisplay:10.37,2013-01-16 04:43:00,
2013-01-15 20:44:00,42.5,14.7,30.29,East,90,0.0,0.0,32,0.00,CLR,FEW,0.00,0.0,WeatherDisplay:10.37,2013-01-16 04:44:00,
2013-01-15 20:46:00,42.5,14.7,30.29,East,90,0.0,0.0,32,0.00,CLR,FEW,0.00,0.0,WeatherDisplay:10.37,2013-01-16 04:46:00,
2013-01-15 20:49:00,42.5,14.7,30.29,East,90,0.0,0.0,32,0.00,CLR,FEW,0.00,0.0,WeatherDisplay:10.37,2013-01-16 04:49:00,
2013-01-15 20:51:00,42.8,14.2,30.29,East,90,0.0,0.0,31,0.00,CLR,FEW,0.00,0.0,WeatherDisplay:10.37,2013-01-16 04:51:00,
2013-01-15 20:52:00,42.9,14.3,30.29,East,90,0.0,0.0,31,0.00,CLR,FEW,0.00,0.0,WeatherDisplay:10.37,2013-01-16 04:52:00,
2013-01-15 20:54:00,42.6,14.8,30.29,East,90,0.0,0.0,32,0.00,CLR,FEW,0.00,0.0,WeatherDisplay:10.37,2013-01-16 04:54:00,
2013-01-15 20:58:00,42.6,14.0,30.29,East,90,0.0,0.0,31,0.00,CLR,FEW,0.00,0.0,WeatherDisplay:10.37,2013-01-16 04:58:00,
2013-01-15 20:59:00,42.8,14.2,30.29,East,90,0.0,0.0,31,0.00,CLR,FEW,0.00,0.0,WeatherDisplay:10.37,2013-01-16 04:59:00,
2013-01-15 21:02:00,42.5,14.7,30.29,East,90,0.0,0.0,32,0.00,CLR,FEW,0.00,0.0,WeatherDisplay:10.37,2013-01-16 05:02:00,
2013-01-15 21:03:00,42.1,15.7,30.29,East,90,0.0,0.0,34,0.00,CLR,FEW,0.00,0.0,WeatherDisplay:10.37,2013-01-16 05:03:00,
2013-01-15 21:07:00,41.5,15.2,30.29,East,90,0.0,0.0,34,0.00,CLR,FEW,0.00,0.0,WeatherDisplay:10.37,2013-01-16 05:07:00,
2013-01-15 21:08:00,41.6,15.3,30.29,East,90,0.0,0.0,34,0.00,CLR,FEW,0.00,0.0,WeatherDisplay:10.37,2013-01-16 05:08:00,
2013-01-15 21:12:00,42.1,15.0,30.29,East,90,0.0,0.0,33,0.00,CLR,FEW,0.00,0.0,WeatherDisplay:10.37,2013-01-16 05:12:00,
2013-01-15 21:13:00,42.2,15.1,30.29,East,90,0.0,0.0,33,0.00,CLR,FEW,0.00,0.0,WeatherDisplay:10.37,2013-01-16 05:13:00,
2013-01-15 21:14:00,42.2,15.1,30.29,East,90,0.0,0.0,33,0.00,CLR,FEW,0.00,0.0,WeatherDisplay:10.37,2013-01-16 05:14:00,
2013-01-15 21:18:00,42.5,14.7,30.29,East,90,0.0,0.0,32,0.00,CLR,FEW,0.00,0.0,WeatherDisplay:10.37,2013-01-16 05:18:00,
2013-01-15 21:19:00,42.6,14.8,30.29,East,90,0.0,0.0,32,0.00,CLR,FEW,0.00,0.0,WeatherDisplay:10.37,2013-01-16 05:19:00,
2013-01-15 21:23:00,42.9,15.0,30.29,East,90,0.0,0.0,32,0.00,CLR,FEW,0.00,0.0,WeatherDisplay:10.37,2013-01-16 05:23:00,
2013-01-15 21:24:00,42.9,15.0,30.29,ENE,59,0.0,0.0,32,0.00,CLR,FEW,0.00,0.0,WeatherDisplay:10.37,2013-01-16 05:24:00,
2013-01-15 21:29:00,43.2,14.6,30.29,ENE,61,0.0,0.0,31,0.00,CLR,FEW,0.00,0.0,WeatherDisplay:10.37,2013-01-16 05:29:00,
2013-01-15 21:30:00,43.3,14.6,30.29,ENE,60,0.0,0.0,31,0.00,CLR,FEW,0.00,0.0,WeatherDisplay:10.37,2013-01-16 05:30:00,
2013-01-15 21:31:00,43.3,14.6,30.29,ENE,60,0.0,0.0,31,0.00,CLR,FEW,0.00,0.0,WeatherDisplay:10.37,2013-01-16 05:31:00,
2013-01-15 21:35:00,43.2,14.6,30.29,ENE,61,0.0,0.0,31,0.00,CLR,FEW,0.00,0.0,WeatherDisplay:10.37,2013-01-16 05:35:00,
2013-01-15 21:36:00,43.2,14.6,30.29,ENE,61,0.0,0.0,31,0.00,CLR,FEW,0.00,0.0,WeatherDisplay:10.37,2013-01-16 05:36:00,
2013-01-15 21:37:00,43.2,13.8,30.29,ENE,60,0.0,0.0,30,0.00,CLR,FEW,0.00,0.0,WeatherDisplay:10.37,2013-01-16 05:37:00,
2013-01-15 21:40:00,43.3,14.6,30.29,ENE,61,0.0,0.0,31,0.00,CLR,FEW,0.00,0.0,WeatherDisplay:10.37,2013-01-16 05:40:00,
2013-01-15 21:42:00,42.6,15.5,30.29,East,96,0.0,0.0,33,0.00,CLR,FEW,0.00,0.0,WeatherDisplay:10.37,2013-01-16 05:42:00,
2013-01-15 21:45:00,42.1,15.7,30.29,East,95,0.0,0.0,34,0.00,CLR,FEW,0.00,0.0,WeatherDisplay:10.37,2013-01-16 05:45:00,
2013-01-15 21:48:00,42.1,15.0,30.29,East,95,0.0,0.0,33,0.00,CLR,FEW,0.00,0.0,WeatherDisplay:10.37,2013-01-16 05:48:00,
2013-01-15 21:49:00,42.1,15.0,30.29,East,95,0.0,0.0,33,0.00,CLR,FEW,0.00,0.0,WeatherDisplay:10.37,2013-01-16 05:49:00,
2013-01-15 21:50:00,42.2,14.4,30.29,East,95,0.0,0.0,32,0.00,CLR,FEW,0.00,0.0,WeatherDisplay:10.37,2013-01-16 05:50:00,
2013-01-15 21:51:00,42.2,14.4,30.29,East,95,0.0,0.0,32,0.00,CLR,FEW,0.00,0.0,WeatherDisplay:10.37,2013-01-16 05:51:00,
2013-01-15 21:54:00,41.6,15.3,30.29,East,95,1.2,2.6,34,0.00,CLR,FEW,0.00,0.0,WeatherDisplay:10.37,2013-01-16 05:54:00,
2013-01-15 21:55:00,41.3,16.3,30.29,ESE,104,1.6,3.5,36,0.00,CLR,FEW,0.00,0.0,WeatherDisplay:10.37,2013-01-16 05:55:00,
2013-01-15 21:58:00,40.8,15.9,30.29,ENE,77,0.0,0.0,36,0.00,CLR,FEW,0.00,0.0,WeatherDisplay:10.37,2013-01-16 05:58:00,
2013-01-15 21:59:00,40.9,16.0,30.29,ENE,77,0.0,0.0,36,0.00,CLR,FEW,0.00,0.0,WeatherDisplay:10.37,2013-01-16 05:59:00,
2013-01-15 22:00:00,40.9,16.0,30.29,ENE,77,0.0,0.0,36,0.00,CLR,FEW,0.00,0.0,WeatherDisplay:10.37,2013-01-16 06:00:00,
2013-01-15 22:03:00,41.5,15.8,30.29,ENE,77,0.0,0.0,35,0.00,CLR,FEW,0.00,0.0,WeatherDisplay:10.37,2013-01-16 06:03:00,
2013-01-15 22:05:00,41.6,15.9,30.29,ENE,77,0.0,0.0,35,0.00,CLR,FEW,0.00,0.0,WeatherDisplay:10.37,2013-01-16 06:05:00,
2013-01-15 22:06:00,41.6,15.9,30.29,ENE,77,0.0,0.0,35,0.00,CLR,FEW,0.00,0.0,WeatherDisplay:10.37,2013-01-16 06:06:00,
2013-01-15 22:08:00,41.5,15.8,30.29,ENE,77,0.0,0.0,35,0.00,CLR,FEW,0.00,0.0,WeatherDisplay:10.37,2013-01-16 06:08:00,
2013-01-15 22:10:00,41.3,16.3,30.29,ENE,67,0.0,0.0,36,0.00,CLR,FEW,0.00,0.0,WeatherDisplay:10.37,2013-01-16 06:10:00,
2013-01-15 22:11:00,41.2,16.2,30.29,ENE,67,0.0,0.0,36,0.00,CLR,FEW,0.00,0.0,WeatherDisplay:10.37,2013-01-16 06:11:00,
2013-01-15 22:13:00,41.1,16.8,30.29,ENE,67,0.0,0.0,37,0.00,CLR,FEW,0.00,0.0,WeatherDisplay:10.37,2013-01-16 06:13:00,
2013-01-15 22:15:00,40.9,16.0,30.30,ENE,67,0.0,0.0,36,0.00,CLR,FEW,0.00,0.0,WeatherDisplay:10.37,2013-01-16 06:15:00,
2013-01-15 22:16:00,40.8,15.9,30.30,ENE,67,0.0,0.0,36,0.00,CLR,FEW,0.00,0.0,WeatherDisplay:10.37,2013-01-16 06:16:00,
2013-01-15 22:17:00,40.8,15.9,30.30,ENE,67,0.0,0.0,36,0.00,CLR,FEW,0.00,0.0,WeatherDisplay:10.37,2013-01-16 06:17:00,
2013-01-15 22:18:00,40.6,15.7,30.30,ENE,67,0.0,0.0,36,0.00,CLR,FEW,0.00,0.0,WeatherDisplay:10.37,2013-01-16 06:18:00,
2013-01-15 22:20:00,40.5,16.2,30.30,ENE,67,0.0,0.0,37,0.00,CLR,FEW,0.00,0.0,WeatherDisplay:10.37,2013-01-16 06:20:00,
2013-01-15 22:22:00,40.5,16.2,30.30,ENE,68,0.0,0.0,37,0.00,CLR,FEW,0.00,0.0,WeatherDisplay:10.37,2013-01-16 06:22:00,
2013-01-15 22:25:00,40.8,15.9,30.30,ENE,68,0.0,0.0,36,0.00,CLR,FEW,0.00,0.0,WeatherDisplay:10.37,2013-01-16 06:25:00,
2013-01-15 22:27:00,40.9,16.0,30.30,ENE,68,0.0,0.0,36,0.00,CLR,FEW,0.00,0.0,WeatherDisplay:10.37,2013-01-16 06:27:00,
2013-01-15 22:29:00,40.9,16.0,30.31,ENE,68,0.0,0.0,36,0.00,CLR,FEW,0.00,0.0,WeatherDisplay:10.37,2013-01-16 06:29:00,
2013-01-15 22:30:00,40.9,16.0,30.31,ENE,68,0.0,0.0,36,0.00,CLR,FEW,0.00,0.0,WeatherDisplay:10.37,2013-01-16 06:30:00,
2013-01-15 22:31:00,40.9,16.0,30.31,ENE,68,0.0,0.0,36,0.00,CLR,FEW,0.00,0.0,WeatherDisplay:10.37,2013-01-16 06:31:00,
2013-01-15 22:32:00,40.9,16.0,30.31,ENE,68,0.0,0.0,36,0.00,CLR,FEW,0.00,0.0,WeatherDisplay:10.37,2013-01-16 06:32:00,
2013-01-15 22:34:00,40.6,16.3,30.31,NE,48,0.0,0.0,37,0.00,CLR,FEW,0.00,0.0,WeatherDisplay:10.37,2013-01-16 06:34:00,
2013-01-15 22:36:00,40.5,16.9,30.31,NE,48,0.0,0.0,38,0.00,CLR,FEW,0.00,0.0,WeatherDisplay:10.37,2013-01-16 06:36:00,
2013-01-15 22:37:00,40.3,16.7,30.31,NE,48,0.0,0.0,38,0.00,CLR,FEW,0.00,0.0,WeatherDisplay:10.37,2013-01-16 06:37:00,
2013-01-15 22:39:00,40.1,16.5,30.31,NE,52,0.0,0.0,38,0.00,CLR,FEW,0.00,0.0,WeatherDisplay:10.37,2013-01-16 06:39:00,
2013-01-15 22:41:00,39.6,16.6,30.31,NE,48,0.0,0.0,39,0.00,CLR,FEW,0.00,0.0,WeatherDisplay:10.37,2013-01-16 06:41:00,
2013-01-15 22:42:00,39.5,17.1,30.31,NE,48,0.0,0.0,40,0.00,CLR,FEW,0.00,0.0,WeatherDisplay:10.37,2013-01-16 06:42:00,
2013-01-15 22:45:00,39.1,16.2,30.30,East,82,0.0,0.0,39,0.00,CLR,FEW,0.00,0.0,WeatherDisplay:10.37,2013-01-16 06:45:00,
2013-01-15 22:46:00,39.2,16.3,30.30,East,82,0.0,0.0,39,0.00,CLR,FEW,0.00,0.0,WeatherDisplay:10.37,2013-01-16 06:46:00,
2013-01-15 22:47:00,39.5,16.0,30.30,East,81,0.0,0.0,38,0.00,CLR,FEW,0.00,0.0,WeatherDisplay:10.37,2013-01-16 06:47:00,
2013-01-15 22:48:00,39.8,15.6,30.30,East,81,0.0,0.0,37,0.00,CLR,FEW,0.00,0.0,WeatherDisplay:10.37,2013-01-16 06:48:00,
2013-01-15 22:51:00,40.2,16.6,30.30,East,80,0.0,0.0,38,0.00,CLR,FEW,0.00,0.0,WeatherDisplay:10.37,2013-01-16 06:51:00,
2013-01-15 22:52:00,40.2,16.6,30.30,East,80,0.0,0.0,38,0.00,CLR,FEW,0.00,0.0,WeatherDisplay:10.37,2013-01-16 06:52:00,
2013-01-15 22:53:00,40.2,16.6,30.30,East,80,0.0,0.0,38,0.00,CLR,FEW,0.00,0.0,WeatherDisplay:10.37,2013-01-16 06:53:00,
2013-01-15 22:57:00,40.3,15.4,30.30,East,80,0.0,0.0,36,0.00,CLR,FEW,0.00,0.0,WeatherDisplay:10.37,2013-01-16 06:57:00,
2013-01-15 22:58:00,40.3,15.4,30.30,East,80,0.0,0.0,36,0.00,CLR,FEW,0.00,0.0,WeatherDisplay:10.37,2013-01-16 06:58:00,
2013-01-15 22:59:00,40.3,16.7,30.30,East,80,0.0,0.0,38,0.00,CLR,FEW,0.00,0.0,WeatherDisplay:10.37,2013-01-16 06:59:00,
2013-01-15 23:02:00,39.8,16.2,30.30,East,82,0.0,0.0,38,0.00,CLR,FEW,0.00,0.0,WeatherDisplay:10.37,2013-01-16 07:02:00,
2013-01-15 23:04:00,39.9,15.7,30.30,East,84,0.0,0.0,37,0.00,CLR,FEW,0.00,0.0,WeatherDisplay:10.37,2013-01-16 07:04:00,
2013-01-15 23:05:00,39.9,15.7,30.30,East,84,0.0,0.0,37,0.00,CLR,FEW,0.00,0.0,WeatherDisplay:10.37,2013-01-16 07:05:00,
2013-01-15 23:09:00,40.2,16.0,30.30,East,84,0.0,0.0,37,0.00,CLR,FEW,0.00,0.0,WeatherDisplay:10.37,2013-01-16 07:09:00,
2013-01-15 23:10:00,40.2,16.0,30.30,East,84,0.0,0.0,37,0.00,CLR,FEW,0.00,0.0,WeatherDisplay:10.37,2013-01-16 07:10:00,
2013-01-15 23:14:00,40.2,16.0,30.31,East,88,2.0,0.0,37,0.00,CLR,FEW,0.00,0.0,WeatherDisplay:10.37,2013-01-16 07:14:00,
2013-01-15 23:15:00,40.1,16.5,30.31,East,99,4.6,4.6,38,0.00,CLR,FEW,0.00,0.0,WeatherDisplay:10.37,2013-01-16 07:15:00,
2013-01-15 23:16:00,39.6,16.0,30.31,East,99,0.0,2.3,38,0.00,CLR,FEW,0.00,0.0,WeatherDisplay:10.37,2013-01-16 07:16:00,
2013-01-15 23:19:00,39.1,16.2,30.31,East,95,0.0,0.0,39,0.00,CLR,FEW,0.00,0.0,WeatherDisplay:10.37,2013-01-16 07:19:00,
2013-01-15 23:20:00,39.1,16.2,30.31,East,99,0.0,0.0,39,0.00,CLR,FEW,0.00,0.0,WeatherDisplay:10.37,2013-01-16 07:20:00,
2013-01-15 23:21:00,39.2,16.3,30.31,East,99,0.0,0.0,39,0.00,CLR,FEW,0.00,0.0,WeatherDisplay:10.37,2013-01-16 07:21:00,
2013-01-15 23:24:00,40.1,15.9,30.31,East,93,0.0,0.0,37,0.00,CLR,FEW,0.00,0.0,WeatherDisplay:10.37,2013-01-16 07:24:00,
2013-01-15 23:25:00,40.1,15.9,30.31,ENE,77,0.0,0.0,37,0.00,CLR,FEW,0.00,0.0,WeatherDisplay:10.37,2013-01-16 07:25:00,
2013-01-15 23:26:00,40.3,15.4,30.31,ENE,77,0.0,0.0,36,0.00,CLR,FEW,0.00,0.0,WeatherDisplay:10.37,2013-01-16 07:26:00,
2013-01-15 23:30:00,41.1,16.1,30.30,ENE,76,0.0,0.0,36,0.00,CLR,FEW,0.00,0.0,WeatherDisplay:10.37,2013-01-16 07:30:00,
2013-01-15 23:31:00,41.2,14.9,30.30,East,84,0.0,0.0,34,0.00,CLR,FEW,0.00,0.0,WeatherDisplay:10.37,2013-01-16 07:31:00,
2013-01-15 23:32:00,41.3,15.0,30.30,East,84,0.0,0.0,34,0.00,CLR,FEW,0.00,0.0,WeatherDisplay:10.37,2013-01-16 07:32:00,
2013-01-15 23:35:00,41.2,16.2,30.30,East,85,0.1,0.0,36,0.00,CLR,FEW,0.00,0.0,WeatherDisplay:10.37,2013-01-16 07:35:00,
2013-01-15 23:36:00,40.2,16.0,30.30,East,89,1.8,3.9,37,0.00,CLR,FEW,0.00,0.0,WeatherDisplay:10.37,2013-01-16 07:36:00,
2013-01-15 23:38:00,39.9,15.7,30.30,East,88,0.0,0.0,37,0.00,CLR,FEW,0.00,0.0,WeatherDisplay:10.37,2013-01-16 07:38:00,
2013-01-15 23:40:00,40.1,15.2,30.30,East,84,0.6,6.9,36,0.00,CLR,FEW,0.00,0.0,WeatherDisplay:10.37,2013-01-16 07:40:00,
2013-01-15 23:41:00,40.1,15.2,30.30,East,94,1.2,3.5,36,0.00,CLR,FEW,0.00,0.0,WeatherDisplay:10.37,2013-01-16 07:41:00,
2013-01-15 23:43:00,39.9,15.1,30.30,East,100,0.0,0.0,36,0.00,CLR,FEW,0.00,0.0,WeatherDisplay:10.37,2013-01-16 07:43:00,
2013-01-15 23:46:00,39.3,15.8,30.29,East,100,0.0,0.0,38,0.00,CLR,FEW,0.00,0.0,WeatherDisplay:10.37,2013-01-16 07:46:00,
2013-01-15 23:47:00,39.2,15.7,30.29,East,101,0.0,0.0,38,0.00,CLR,FEW,0.00,0.0,WeatherDisplay:10.37,2013-01-16 07:47:00,
2013-01-15 23:48:00,39.1,15.6,30.29,East,101,0.0,0.0,38,0.00,CLR,FEW,0.00,0.0,WeatherDisplay:10.37,2013-01-16 07:48:00,
2013-01-15 23:51:00,39.3,15.8,30.29,East,101,0.0,0.0,38,0.00,CLR,FEW,0.00,0.0,WeatherDisplay:10.37,2013-01-16 07:51:00,
2013-01-15 23:52:00,39.5,15.3,30.29,East,101,0.0,0.0,37,0.00,CLR,FEW,0.00,0.0,WeatherDisplay:10.37,2013-01-16 07:52:00,
2013-01-15 23:54:00,39.8,15.6,30.29,East,101,0.0,0.0,37,0.00,CLR,FEW,0.00,0.0,WeatherDisplay:10.37,2013-01-16 07:54:00,
2013-01-15 23:57:00,39.8,15.6,30.29,East,101,0.0,0.0,37,0.00,CLR,FEW,0.00,0.0,WeatherDisplay:10.37,2013-01-16 07:57:00,
2013-01-15 23:59:00,39.8,15.6,30.29,East,101,0.0,0.0,37,0.00,CLR,FEW,0.00,0.0,WeatherDisplay:10.37,2013-01-16 07:59:00,